KJ6MC Weather Reports


time (UTC)temp
F
wind
direction
speed
knots
gust
knots
rain 1hr
in
rain 24hr
in
rain mn
in
humidity
%
barometer
mb
20260507060121 61 212 1.7 5.2 0.00 0.00 0.00 79 1017.5
20260507060018 62 222 1.7 5.2 0.00 0.00 0.00 80 1017.4
20260507055917 62 198 1.7 5.2 0.00 0.00 0.00 80 1017.4
20260507055835 62 230 2.6 5.2 0.00 0.00 0.00 79 1017.4
20260507055817 62 219 1.7 5.2 0.00 0.00 0.00 80 1017.4
20260507055732 62 233 2.6 5.2 0.00 0.00 0.00 79 1017.4
20260507055720 62 240 2.6 5.2 0.00 0.00 0.00 79 1017.4
20260507055518 62 229 2.6 5.2 0.00 0.00 0.00 79 1017.4
20260507055417 62 143 2.6 5.2 0.00 0.00 0.00 79 1017.4
20260507055317 62 243 2.6 5.2 0.00 0.00 0.00 79 1017.3
20260507055217 62 240 2.6 6.1 0.00 0.00 0.00 79 1017.3
20260507055129 62 239 2.6 7.0 0.00 0.00 0.00 79 1017.4
20260507055118 62 236 2.6 7.0 0.00 0.00 0.00 79 1017.4
20260507055017 62 253 2.6 7.0 0.00 0.00 0.00 79 1017.4
20260507054915 62 233 2.6 7.0 0.00 0.00 0.00 79 1017.3
20260507054824 62 235 2.6 7.0 0.00 0.00 0.00 79 1017.3
20260507054816 62 221 2.6 7.0 0.00 0.00 0.00 79 1017.3
20260507054725 62 236 2.6 7.0 0.00 0.00 0.00 79 1017.4
20260507054711 62 235 2.6 7.0 0.00 0.00 0.00 79 1017.3
20260507054515 62 242 2.6 7.0 0.00 0.00 0.00 79 1017.3
20260507054415 62 228 2.6 7.0 0.00 0.00 0.00 79 1017.3
20260507054314 62 224 2.6 7.0 0.00 0.00 0.00 79 1017.3
20260507054213 62 200 1.7 7.0 0.00 0.00 0.00 79 1017.3
20260507054113 62 269 1.7 4.3 0.00 0.00 0.00 79 1017.3
20260507054059 62 236 1.7 4.3 0.00 0.00 0.00 79 1017.3
20260507054014 62 239 1.7 4.3 0.00 0.00 0.00 79 1017.3
20260507053913 62 238 1.7 4.3 0.00 0.00 0.00 79 1017.3
20260507053813 62 240 2.6 7.0 0.00 0.00 0.00 79 1017.3
20260507053713 62 233 2.6 7.0 0.00 0.00 0.00 79 1017.3
20260507053611 62 232 2.6 7.0 0.00 0.00 0.00 79 1017.3
20260507053559 62 232 2.6 7.0 0.00 0.00 0.00 79 1017.3
20260507053511 62 229 2.6 7.0 0.00 0.00 0.00 79 1017.3
20260507053411 62 229 2.6 7.0 0.00 0.00 0.00 79 1017.4
20260507053311 62 174 2.6 7.0 0.00 0.00 0.00 79 1017.4
20260507053211 62 229 2.6 7.0 0.00 0.00 0.00 79 1017.3
20260507053111 63 212 2.6 7.0 0.00 0.00 0.00 79 1017.3
20260507053057 63 228 2.6 7.0 0.00 0.00 0.00 79 1017.3
20260507053011 63 215 2.6 7.0 0.00 0.00 0.00 79 1017.3
20260507052912 63 233 2.6 7.0 0.00 0.00 0.00 79 1017.3
20260507052812 63 221 2.6 6.1 0.00 0.00 0.00 79 1017.3
20260507052711 63 242 2.6 5.2 0.00 0.00 0.00 79 1017.3
20260507052607 63 229 2.6 5.2 0.00 0.00 0.00 79 1017.3
20260507052557 63 229 2.6 5.2 0.00 0.00 0.00 79 1017.3
20260507052505 63 201 2.6 5.2 0.00 0.00 0.00 78 1017.3
20260507052411 63 231 2.6 6.1 0.00 0.00 0.00 78 1017.3
20260507052306 63 253 2.6 6.1 0.00 0.00 0.00 78 1017.3
20260507052203 63 226 2.6 7.0 0.00 0.00 0.00 78 1017.3
20260507052100 63 236 2.6 7.0 0.00 0.00 0.00 78 1017.3
20260507051959 63 223 2.6 7.0 0.00 0.00 0.00 78 1017.3
20260507051900 63 210 2.6 7.0 0.00 0.00 0.00 78 1017.3
20260507051800 63 223 2.6 7.0 0.00 0.00 0.00 78 1017.3
20260507051700 63 221 2.6 7.0 0.00 0.00 0.00 78 1017.2
20260507051608 63 245 3.5 7.0 0.00 0.00 0.00 78 1017.2
20260507051558 63 229 3.5 7.0 0.00 0.00 0.00 78 1017.2
20260507051459 63 235 3.5 7.8 0.00 0.00 0.00 78 1017.2
20260507051359 63 217 3.5 7.8 0.00 0.00 0.00 78 1017.2
20260507051318 64 217 3.5 9.6 0.00 0.00 0.00 77 1017.2
20260507051259 63 231 3.5 9.6 0.00 0.00 0.00 78 1017.2
20260507051216 63 243 3.5 9.6 0.00 0.00 0.00 78 1017.2
20260507051208 64 217 3.5 9.6 0.00 0.00 0.00 78 1017.2
20260507051000 64 145 3.5 9.6 0.00 0.00 0.00 77 1017.2
20260507050859 64 224 4.3 9.6 0.00 0.00 0.00 77 1017.2
20260507050759 64 233 4.3 9.6 0.00 0.00 0.00 77 1017.2
20260507050659 64 242 4.3 9.6 0.00 0.00 0.00 77 1017.1
20260507050604 64 233 4.3 9.6 0.00 0.00 0.00 77 1017.2
20260507050554 64 231 4.3 9.6 0.00 0.00 0.00 77 1017.2
20260507050459 64 276 4.3 9.6 0.00 0.00 0.00 77 1017.2
20260507050359 64 236 3.5 9.6 0.00 0.00 0.00 77 1017.1
20260507050300 64 228 3.5 9.6 0.00 0.00 0.00 77 1017.1
20260507050159 64 195 3.5 9.6 0.00 0.00 0.00 77 1017.1
20260507050116 64 242 3.5 9.6 0.00 0.00 0.00 77 1017.1
20260507050105 64 236 3.5 9.6 0.00 0.00 0.00 77 1017.1
20260507045959 64 228 3.5 7.8 0.00 0.00 0.00 77 1017.1
20260507045859 64 236 3.5 7.8 0.00 0.00 0.00 77 1017.1
20260507045800 64 274 3.5 7.8 0.00 0.00 0.00 77 1017.1
20260507045659 64 238 3.5 7.8 0.00 0.00 0.00 77 1017.1
20260507045602 64 158 3.5 7.8 0.00 0.00 0.00 77 1017.2
20260507045552 64 193 3.5 7.8 0.00 0.00 0.00 77 1017.2
20260507045457 64 215 3.5 7.8 0.00 0.00 0.00 77 1017.1
20260507045357 64 250 3.5 7.8 0.00 0.00 0.00 77 1017.1
20260507045315 64 260 3.5 7.8 0.00 0.00 0.00 76 1017.1
20260507045255 64 229 3.5 7.8 0.00 0.00 0.00 76 1017.1
20260507045211 64 232 3.5 7.8 0.00 0.00 0.00 76 1017.1
20260507045203 64 260 3.5 7.8 0.00 0.00 0.00 76 1017.1
20260507044955 64 243 3.5 7.8 0.00 0.00 0.00 76 1017.1
20260507044855 65 225 3.5 7.8 0.00 0.00 0.00 76 1017.1
20260507044755 65 245 3.5 6.1 0.00 0.00 0.00 76 1017.1
20260507044655 65 233 3.5 7.8 0.00 0.00 0.00 76 1017.1
20260507044603 65 231 3.5 7.8 0.00 0.00 0.00 76 1017.0
20260507044552 65 257 3.5 7.8 0.00 0.00 0.00 76 1017.0
20260507044456 65 235 2.6 7.8 0.00 0.00 0.00 76 1017.0
20260507044355 65 248 2.6 7.8 0.00 0.00 0.00 76 1017.0
20260507044255 65 232 3.5 11.3 0.00 0.00 0.00 75 1017.0
20260507044153 65 212 3.5 11.3 0.00 0.00 0.00 75 1017.1
20260507044053 65 157 3.5 11.3 0.00 0.00 0.00 75 1017.0
20260507043952 65 232 3.5 11.3 0.00 0.00 0.00 75 1017.0
20260507043852 65 232 3.5 11.3 0.00 0.00 0.00 75 1017.0
20260507043751 65 218 3.5 11.3 0.00 0.00 0.00 75 1017.1
20260507043651 65 180 3.5 11.3 0.00 0.00 0.00 75 1017.1
20260507043554 65 228 3.5 11.3 0.00 0.00 0.00 75 1017.0
20260507043452 65 248 3.5 11.3 0.00 0.00 0.00 75 1017.0
20260507043351 65 219 2.6 11.3 0.00 0.00 0.00 75 1017.0
20260507043251 65 243 2.6 10.4 0.00 0.00 0.00 75 1017.0
20260507043151 65 250 2.6 10.4 0.00 0.00 0.00 75 1017.0
20260507043053 65 232 2.6 10.4 0.00 0.00 0.00 75 1017.0
20260507042945 65 231 2.6 10.4 0.00 0.00 0.00 75 1017.0
20260507042846 65 271 3.5 11.3 0.00 0.00 0.00 75 1016.9
20260507042745 65 257 3.5 11.3 0.00 0.00 0.00 75 1016.9
20260507042646 65 201 3.5 11.3 0.00 0.00 0.00 75 1016.9
20260507042547 65 232 4.3 11.3 0.00 0.00 0.00 75 1016.9
20260507042439 65 215 4.3 11.3 0.00 0.00 0.00 75 1016.8
20260507042340 65 264 4.3 11.3 0.00 0.00 0.00 75 1016.9
20260507042307 66 233 4.3 11.3 0.00 0.00 0.00 75 1016.9
20260507042240 66 243 4.3 11.3 0.00 0.00 0.00 75 1016.9
20260507042154 66 243 4.3 11.3 0.00 0.00 0.00 75 1016.9
20260507042037 66 233 4.3 11.3 0.00 0.00 0.00 75 1016.9
20260507041931 66 222 4.3 11.3 0.00 0.00 0.00 75 1016.9
20260507041831 66 246 4.3 11.3 0.00 0.00 0.00 75 1016.9
20260507041734 66 250 4.3 11.3 0.00 0.00 0.00 75 1016.9
20260507041631 66 249 3.5 10.4 0.00 0.00 0.00 75 1016.8
20260507041539 66 248 3.5 10.4 0.00 0.00 0.00 75 1016.9
20260507041531 66 252 3.5 10.4 0.00 0.00 0.00 75 1016.9
20260507041427 66 245 3.5 10.4 0.00 0.00 0.00 75 1016.9
20260507041325 66 232 3.5 10.4 0.00 0.00 0.00 75 1016.9
20260507041226 66 246 3.5 10.4 0.00 0.00 0.00 75 1016.9
20260507041125 66 248 3.5 10.4 0.00 0.00 0.00 75 1016.9
20260507041037 66 255 3.5 10.4 0.00 0.00 0.00 75 1016.9
20260507041023 66 246 3.5 10.4 0.00 0.00 0.00 75 1016.9
20260507040921 66 255 3.5 10.4 0.00 0.00 0.00 75 1016.9
20260507040821 66 231 3.5 10.4 0.00 0.00 0.00 75 1016.8
20260507040802 66 262 3.5 10.4 0.00 0.00 0.00 74 1016.8
20260507040722 66 242 3.5 10.4 0.00 0.00 0.00 74 1016.8
20260507040648 66 257 3.5 10.4 0.00 0.00 0.00 75 1016.8
20260507040521 66 267 3.5 10.4 0.00 0.00 0.00 74 1016.8
20260507040421 66 248 4.3 10.4 0.00 0.00 0.00 74 1016.8
20260507040322 67 250 4.3 10.4 0.00 0.00 0.00 75 1016.7
20260507040220 67 226 4.3 10.4 0.00 0.00 0.00 75 1016.7
20260507040119 67 250 4.3 10.4 0.00 0.00 0.00 75 1016.8
20260507040020 67 238 4.3 10.4 0.00 0.00 0.00 75 1016.7
20260507035920 67 226 4.3 10.4 0.00 0.00 0.00 75 1016.7
20260507035819 67 210 3.5 10.4 0.00 0.00 0.00 75 1016.7
20260507035719 67 252 3.5 10.4 0.00 0.00 0.00 75 1016.8
20260507035619 67 257 3.5 10.4 0.00 0.00 0.00 75 1016.7
20260507035539 67 190 3.5 7.8 0.00 0.00 0.00 75 1016.7
20260507035518 67 145 3.5 7.8 0.00 0.00 0.00 75 1016.7
20260507035419 67 233 3.5 7.8 0.00 0.00 0.00 75 1016.7
20260507035319 67 274 2.6 7.0 0.00 0.00 0.00 74 1016.7
20260507035256 67 225 2.6 7.0 0.00 0.00 0.00 75 1016.7
20260507035219 67 233 2.6 7.0 0.00 0.00 0.00 74 1016.7
20260507035145 67 228 2.6 7.0 0.00 0.00 0.00 75 1016.7
20260507035019 67 264 2.6 6.1 0.00 0.00 0.00 75 1016.7
20260507034919 67 211 2.6 6.1 0.00 0.00 0.00 75 1016.7
20260507034819 68 228 2.6 7.8 0.00 0.00 0.00 75 1016.7
20260507034719 68 233 2.6 7.8 0.00 0.00 0.00 75 1016.7
20260507034619 68 239 2.6 9.6 0.00 0.00 0.00 74 1016.7
20260507034535 68 242 2.6 9.6 0.00 0.00 0.00 74 1016.7
20260507034519 68 233 2.6 9.6 0.00 0.00 0.00 74 1016.7
20260507034419 68 195 2.6 9.6 0.00 0.00 0.00 74 1016.6
20260507034319 68 248 2.6 9.6 0.00 0.00 0.00 74 1016.7
20260507034217 68 241 2.6 9.6 0.00 0.00 0.00 74 1016.6
20260507034115 68 211 2.6 9.6 0.00 0.00 0.00 74 1016.7
20260507034033 68 245 2.6 9.6 0.00 0.00 0.00 74 1016.7
20260507034015 68 259 2.6 9.6 0.00 0.00 0.00 74 1016.7
20260507033916 68 211 2.6 9.6 0.00 0.00 0.00 74 1016.6
20260507033816 68 239 2.6 9.6 0.00 0.00 0.00 74 1016.6
20260507033715 68 237 2.6 9.6 0.00 0.00 0.00 74 1016.6
20260507033615 69 242 1.7 4.3 0.00 0.00 0.00 74 1016.6
20260507033533 69 271 1.7 4.3 0.00 0.00 0.00 74 1016.6
20260507033513 69 169 1.7 5.2 0.00 0.00 0.00 74 1016.6
20260507033413 69 232 1.7 5.2 0.00 0.00 0.00 74 1016.6
20260507033313 69 212 1.7 5.2 0.00 0.00 0.00 74 1016.6
20260507033252 69 236 1.7 7.0 0.00 0.00 0.00 73 1016.6
20260507033213 69 236 1.7 5.2 0.00 0.00 0.00 73 1016.6
20260507033143 69 205 1.7 5.2 0.00 0.00 0.00 73 1016.6
20260507033014 69 260 1.7 7.0 0.00 0.00 0.00 73 1016.6
20260507032914 69 246 1.7 7.0 0.00 0.00 0.00 73 1016.6
20260507032811 69 248 1.7 7.0 0.00 0.00 0.00 73 1016.6
20260507032712 69 239 1.7 7.0 0.00 0.00 0.00 72 1016.5
20260507032612 69 250 1.7 7.0 0.00 0.00 0.00 72 1016.5
20260507032531 69 300 1.7 7.0 0.00 0.00 0.00 72 1016.6
20260507032512 69 240 1.7 7.0 0.00 0.00 0.00 72 1016.6
20260507032411 69 239 1.7 7.8 0.00 0.00 0.00 72 1016.5
20260507032312 69 287 1.7 7.8 0.00 0.00 0.00 72 1016.5
20260507032211 69 243 1.7 7.8 0.00 0.00 0.00 71 1016.5
20260507032111 70 233 1.7 7.8 0.00 0.00 0.00 71 1016.5
20260507032011 70 281 1.7 7.8 0.00 0.00 0.00 71 1016.4
20260507031910 70 250 1.7 7.8 0.00 0.00 0.00 71 1016.4
20260507031808 70 262 1.7 7.8 0.00 0.00 0.00 71 1016.4
20260507031707 70 287 1.7 7.8 0.00 0.00 0.00 70 1016.4
20260507031607 70 243 1.7 7.8 0.00 0.00 0.00 70 1016.4
20260507031529 70 260 1.7 7.8 0.00 0.00 0.00 70 1016.4
20260507031507 70 276 1.7 7.8 0.00 0.00 0.00 70 1016.4
20260507031407 70 235 1.7 5.2 0.00 0.00 0.00 70 1016.4
20260507031307 70 232 1.7 5.2 0.00 0.00 0.00 69 1016.3
20260507031253 71 228 1.7 7.8 0.00 0.00 0.00 69 1016.4
20260507031205 71 262 1.7 7.0 0.00 0.00 0.00 69 1016.4
20260507031141 71 280 1.7 7.0 0.00 0.00 0.00 69 1016.4
20260507031004 71 248 1.7 8.7 0.00 0.00 0.00 69 1016.4
20260507030903 71 236 1.7 8.7 0.00 0.00 0.00 69 1016.3
20260507030804 71 228 1.7 8.7 0.00 0.00 0.00 68 1016.4
20260507030752 71 253 1.7 8.7 0.00 0.00 0.00 68 1016.3
20260507030703 71 233 1.7 8.7 0.00 0.00 0.00 68 1016.3
20260507030640 71 274 1.7 8.7 0.00 0.00 0.00 68 1016.3
20260507030503 72 214 1.7 8.7 0.00 0.00 0.00 67 1016.3
20260507030401 72 250 1.7 8.7 0.00 0.00 0.00 67 1016.4
20260507030301 72 226 1.7 8.7 0.00 0.00 0.00 66 1016.3
20260507030243 72 287 1.7 4.3 0.00 0.00 0.00 64 1016.3
20260507030159 72 256 1.7 8.7 0.00 0.00 0.00 66 1016.3
20260507030135 72 193 1.7 8.7 0.00 0.00 0.00 64 1016.3
20260507025959 72 236 1.7 4.3 0.00 0.00 0.00 64 1016.3
20260507025859 72 198 1.7 4.3 0.00 0.00 0.00 64 1016.3
20260507025800 72 236 1.7 4.3 0.00 0.00 0.00 64 1016.2
20260507025659 72 240 0.9 4.3 0.00 0.00 0.00 64 1016.2
20260507025557 72 245 0.9 4.3 0.00 0.00 0.00 64 1016.2
20260507025521 72 240 0.9 4.3 0.00 0.00 0.00 64 1016.3
20260507025457 72 240 0.9 4.3 0.00 0.00 0.00 64 1016.3
20260507025357 72 221 0.9 3.5 0.00 0.00 0.00 64 1016.3
20260507025255 72 243 0.9 3.5 0.00 0.00 0.00 64 1016.3
20260507025152 72 217 0.0 3.5 0.00 0.00 0.00 64 1016.2
20260507025019 72 232 0.0 2.6 0.00 0.00 0.00 64 1016.3
20260507024947 72 242 0.0 2.6 0.00 0.00 0.00 64 1016.3
20260507024847 73 241 0.9 2.6 0.00 0.00 0.00 64 1016.3
20260507024747 73 242 0.9 2.6 0.00 0.00 0.00 63 1016.2
20260507024645 73 242 0.9 2.6 0.00 0.00 0.00 63 1016.2
20260507024530 73 243 0.9 2.6 0.00 0.00 0.00 63 1016.2
20260507024442 73 233 0.9 2.6 0.00 0.00 0.00 63 1016.2
20260507024341 73 233 0.9 2.6 0.00 0.00 0.00 63 1016.2
20260507024247 73 253 0.9 2.6 0.00 0.00 0.00 63 1016.2
20260507024241 73 233 0.9 2.6 0.00 0.00 0.00 63 1016.2
20260507024139 73 245 0.9 2.6 0.00 0.00 0.00 63 1016.2
20260507024127 73 252 0.9 2.6 0.00 0.00 0.00 63 1016.2
20260507023935 73 232 0.9 2.6 0.00 0.00 0.00 63 1016.2
20260507023836 73 231 0.0 2.6 0.00 0.00 0.00 63 1016.2
20260507023734 73 232 0.0 2.6 0.00 0.00 0.00 63 1016.2
20260507023634 73 232 0.0 2.6 0.00 0.00 0.00 62 1016.2
20260507023516 73 232 0.0 2.6 0.00 0.00 0.00 62 1016.2
20260507023325 73 232 0.0 2.6 0.00 0.00 0.00 62 1016.1
20260507023226 73 232 0.0 2.6 0.00 0.00 0.00 62 1016.1
20260507023126 73 233 0.0 2.6 0.00 0.00 0.00 62 1016.1
20260507023026 73 228 0.0 1.7 0.00 0.00 0.00 62 1016.1
20260507023015 73 228 0.0 0.9 0.00 0.00 0.00 62 1016.1
20260507022920 73 228 0.0 0.9 0.00 0.00 0.00 63 1016.1
20260507022819 73 228 0.0 0.0 0.00 0.00 0.00 62 1016.1
20260507022720 73 228 0.0 0.0 0.00 0.00 0.00 62 1016.1
20260507022619 73 228 0.0 0.0 0.00 0.00 0.00 62 1016.1
20260507022516 73 228 0.0 0.0 0.00 0.00 0.00 62 1016.0
20260507022413 73 227 0.0 0.0 0.00 0.00 0.00 62 1016.1
20260507022313 73 228 0.0 1.7 0.00 0.00 0.00 62 1016.0
20260507022211 73 229 0.0 1.7 0.00 0.00 0.00 61 1016.0
20260507022112 73 228 0.0 1.7 0.00 0.00 0.00 61 1016.0
20260507022007 73 228 0.0 1.7 0.00 0.00 0.00 61 1016.0
20260507021908 73 228 0.0 1.7 0.00 0.00 0.00 61 1015.9
20260507021807 73 228 0.0 1.7 0.00 0.00 0.00 61 1015.9
20260507021705 73 228 0.0 1.7 0.00 0.00 0.00 61 1016.0
20260507021603 74 228 0.9 2.6 0.00 0.00 0.00 61 1016.0
20260507021514 74 228 0.9 2.6 0.00 0.00 0.00 61 1016.0
20260507021459 74 228 0.9 2.6 0.00 0.00 0.00 60 1016.0
20260507021359 74 227 0.9 2.6 0.00 0.00 0.00 61 1016.0
20260507021259 74 221 0.0 2.6 0.00 0.00 0.00 61 1016.0
20260507021158 74 221 0.0 2.6 0.00 0.00 0.00 61 1016.0
20260507021056 74 221 0.9 2.6 0.00 0.00 0.00 61 1016.0
20260507021013 74 221 0.9 2.6 0.00 0.00 0.00 60 1015.9
20260507020951 74 221 0.9 2.6 0.00 0.00 0.00 60 1015.9
20260507020849 74 221 0.9 2.6 0.00 0.00 0.00 60 1015.9
20260507020749 74 221 0.9 2.6 0.00 0.00 0.00 60 1015.9
20260507020649 74 207 0.0 2.6 0.00 0.00 0.00 60 1015.9
20260507020549 74 232 0.0 1.7 0.00 0.00 0.00 60 1015.9
20260507020511 74 232 0.0 1.7 0.00 0.00 0.00 60 1015.9
20260507020444 74 232 0.0 1.7 0.00 0.00 0.00 60 1016.0
20260507020343 74 232 0.0 1.7 0.00 0.00 0.00 60 1016.0
20260507020243 74 232 0.0 1.7 0.00 0.00 0.00 60 1016.0
20260507020142 74 232 0.0 1.7 0.00 0.00 0.00 60 1016.0
20260507020041 74 231 0.0 1.7 0.00 0.00 0.00 61 1016.0
20260507020011 74 231 0.0 1.7 0.00 0.00 0.00 61 1016.0
20260507015939 74 231 0.0 1.7 0.00 0.00 0.00 61 1016.0
20260507015839 74 231 0.0 1.7 0.00 0.00 0.00 61 1016.0
20260507015739 74 231 0.0 1.7 0.00 0.00 0.00 61 1016.0
20260507015637 74 231 0.0 1.7 0.00 0.00 0.00 61 1016.1
20260507015535 74 231 0.0 1.7 0.00 0.00 0.00 60 1016.1
20260507015509 74 230 0.0 1.7 0.00 0.00 0.00 60 1016.1
20260507015431 74 231 0.0 1.7 0.00 0.00 0.00 60 1016.1
20260507015331 74 231 0.0 1.7 0.00 0.00 0.00 60 1016.1
20260507015234 74 160 0.0 1.7 0.00 0.00 0.00 60 1016.1
20260507015129 74 160 0.0 1.7 0.00 0.00 0.00 60 1016.1
20260507015028 74 160 0.0 1.7 0.00 0.00 0.00 60 1016.1
20260507015009 74 161 0.0 1.7 0.00 0.00 0.00 60 1016.1
20260507014923 74 160 0.0 1.7 0.00 0.00 0.00 60 1016.0
20260507014823 74 245 0.0 1.7 0.00 0.00 0.00 59 1016.0
20260507014724 74 245 0.0 1.7 0.00 0.00 0.00 60 1016.0
20260507014622 74 245 0.0 2.6 0.00 0.00 0.00 60 1016.0
20260507014509 74 245 0.0 2.6 0.00 0.00 0.00 60 1016.0
20260507014415 74 245 0.0 2.6 0.00 0.00 0.00 60 1016.0
20260507014313 74 245 0.0 2.6 0.00 0.00 0.00 60 1016.1
20260507014213 74 245 0.0 2.6 0.00 0.00 0.00 60 1016.1
20260507014112 74 230 0.0 2.6 0.00 0.00 0.00 60 1016.1
20260507014013 74 230 0.0 2.6 0.00 0.00 0.00 60 1016.0
20260507013910 74 214 0.0 2.6 0.00 0.00 0.00 60 1016.0
20260507013809 74 326 0.0 2.6 0.00 0.00 0.00 59 1016.1
20260507013709 74 326 0.0 2.6 0.00 0.00 0.00 60 1016.1
20260507013607 74 321 0.0 1.7 0.00 0.00 0.00 60 1016.0
20260507013507 74 321 0.0 1.7 0.00 0.00 0.00 60 1016.1
20260507013459 74 321 0.0 1.7 0.00 0.00 0.00 60 1016.0
20260507013401 74 321 0.0 1.7 0.00 0.00 0.00 60 1016.1
20260507013341 74 321 0.0 1.7 0.00 0.00 0.00 60 1016.1
20260507013158 74 321 0.0 1.7 0.00 0.00 0.00 60 1016.1
20260507013123 74 321 0.0 1.7 0.00 0.00 0.00 60 1016.1
20260507013001 74 321 0.0 1.7 0.00 0.00 0.00 60 1016.0
20260507012857 74 319 0.0 0.9 0.00 0.00 0.00 59 1016.0
20260507012755 74 319 0.0 0.9 0.00 0.00 0.00 59 1016.0
20260507012553 74 319 0.0 2.6 0.00 0.00 0.00 59 1016.0
20260507012506 74 319 0.0 2.6 0.00 0.00 0.00 59 1016.0
20260507012451 74 319 0.0 2.6 0.00 0.00 0.00 59 1016.0
20260507012351 74 319 0.0 2.6 0.00 0.00 0.00 59 1016.0
20260507012252 74 319 0.0 2.6 0.00 0.00 0.00 59 1016.0
20260507012151 74 319 0.0 2.6 0.00 0.00 0.00 59 1016.0
20260507012049 74 319 0.0 2.6 0.00 0.00 0.00 60 1016.0
20260507012008 74 319 0.0 2.6 0.00 0.00 0.00 60 1016.0
20260507011949 74 319 0.0 2.6 0.00 0.00 0.00 60 1016.0
20260507011847 74 319 0.0 2.6 0.00 0.00 0.00 60 1016.0
20260507011745 74 319 0.0 2.6 0.00 0.00 0.00 59 1016.0
20260507011643 75 310 0.0 2.6 0.00 0.00 0.00 59 1016.0
20260507011543 75 316 0.0 0.9 0.00 0.00 0.00 59 1016.1
20260507011505 75 316 0.0 0.9 0.00 0.00 0.00 60 1016.1
20260507011443 75 316 0.0 0.9 0.00 0.00 0.00 60 1016.0
20260507011344 75 316 0.0 0.9 0.00 0.00 0.00 60 1016.1
20260507011244 75 316 0.0 0.9 0.00 0.00 0.00 59 1016.0
20260507011232 75 316 0.0 4.3 0.00 0.00 0.00 59 1016.0
20260507011142 75 316 0.0 2.6 0.00 0.00 0.00 59 1016.0
20260507011043 75 316 0.0 4.3 0.00 0.00 0.00 59 1016.0
20260507010941 75 316 0.0 4.3 0.00 0.00 0.00 59 1016.0
20260507010841 75 316 0.0 4.3 0.00 0.00 0.00 59 1016.0
20260507010739 75 316 0.0 4.3 0.00 0.00 0.00 59 1016.1
20260507010639 75 316 0.0 4.3 0.00 0.00 0.00 59 1016.1
20260507010525 75 316 0.0 4.3 0.00 0.00 0.00 59 1016.1
20260507010440 75 316 0.0 4.3 0.00 0.00 0.00 59 1016.1
20260507010339 75 316 0.0 4.3 0.00 0.00 0.00 59 1016.1
20260507010239 75 316 0.0 4.3 0.00 0.00 0.00 58 1016.1
20260507010133 75 311 0.9 4.3 0.00 0.00 0.00 58 1016.1
20260507010033 75 307 0.9 4.3 0.00 0.00 0.00 58 1016.1
20260507010003 75 307 0.9 4.3 0.00 0.00 0.00 58 1016.1
20260507005933 75 307 0.9 4.3 0.00 0.00 0.00 58 1016.1
20260507005831 75 305 0.9 4.3 0.00 0.00 0.00 59 1016.1
20260507005734 75 305 0.9 4.3 0.00 0.00 0.00 59 1016.1
20260507005627 75 284 0.9 4.3 0.00 0.00 0.00 59 1016.1
20260507005525 75 285 0.9 4.3 0.00 0.00 0.00 59 1016.1
20260507005503 75 284 0.9 4.3 0.00 0.00 0.00 59 1016.1
20260507005425 75 284 0.9 4.3 0.00 0.00 0.00 59 1016.1
20260507005325 75 284 0.9 4.3 0.00 0.00 0.00 59 1016.1
20260507005226 75 284 0.9 4.3 0.00 0.00 0.00 59 1016.1
20260507005120 75 233 0.9 4.3 0.00 0.00 0.00 59 1016.1
20260507005021 75 315 0.9 4.3 0.00 0.00 0.00 58 1016.2
20260507005002 75 314 0.9 5.2 0.00 0.00 0.00 58 1016.2
20260507004920 75 315 0.9 6.1 0.00 0.00 0.00 58 1016.1
20260507004819 75 308 0.9 6.1 0.00 0.00 0.00 58 1016.1
20260507004717 75 208 0.9 6.1 0.00 0.00 0.00 59 1016.1
20260507004623 75 319 0.9 6.1 0.00 0.00 0.00 59 1016.1
20260507004515 75 124 0.9 6.1 0.00 0.00 0.00 58 1016.1
20260507004504 75 124 0.9 6.1 0.00 0.00 0.00 58 1016.1
20260507004415 75 226 0.9 6.1 0.00 0.00 0.00 58 1016.2
20260507004313 75 226 0.9 6.1 0.00 0.00 0.00 58 1016.1
20260507004211 75 226 0.9 6.1 0.00 0.00 0.00 57 1016.1
20260507004107 75 231 0.9 6.1 0.00 0.00 0.00 57 1016.1
20260507004013 75 235 0.9 6.1 0.00 0.00 0.00 58 1016.1
20260507004003 75 235 0.9 6.1 0.00 0.00 0.00 58 1016.1
20260507003907 75 263 0.9 4.3 0.00 0.00 0.00 58 1016.1
20260507003805 75 263 0.9 4.3 0.00 0.00 0.00 58 1016.1
20260507003704 75 236 0.9 5.2 0.00 0.00 0.00 59 1016.1
20260507003600 75 328 0.9 5.2 0.00 0.00 0.00 58 1016.1
20260507003457 76 15 0.9 5.2 0.00 0.00 0.00 57 1016.1
20260507003358 76 319 0.9 5.2 0.00 0.00 0.00 57 1016.1
20260507003255 76 319 0.9 5.2 0.00 0.00 0.00 57 1016.0
20260507003155 76 319 0.9 5.2 0.00 0.00 0.00 56 1016.1
20260507003049 76 298 0.9 5.2 0.00 0.00 0.00 57 1016.1
20260507003002 76 297 0.9 5.2 0.00 0.00 0.00 57 1016.1
20260507002949 76 298 0.9 5.2 0.00 0.00 0.00 56 1016.1
20260507002849 76 298 0.9 5.2 0.00 0.00 0.00 56 1016.1
20260507002750 76 11 0.9 5.2 0.00 0.00 0.00 56 1016.1
20260507002649 76 226 0.9 3.5 0.00 0.00 0.00 56 1016.1
20260507002545 76 226 0.9 3.5 0.00 0.00 0.00 57 1016.1
20260507002457 76 226 0.9 3.5 0.00 0.00 0.00 56 1016.1
20260507002443 76 228 0.9 3.5 0.00 0.00 0.00 56 1016.1
20260507002343 77 245 0.0 2.6 0.00 0.00 0.00 56 1016.1
20260507002241 77 242 0.0 2.6 0.00 0.00 0.00 56 1016.0
20260507002141 77 242 0.0 2.6 0.00 0.00 0.00 55 1016.1
20260507002035 77 316 0.0 2.6 0.00 0.00 0.00 55 1016.1
20260507001956 77 235 0.0 2.6 0.00 0.00 0.00 55 1016.1
20260507001935 77 235 0.9 2.6 0.00 0.00 0.00 56 1016.0
20260507001836 77 234 0.9 6.1 0.00 0.00 0.00 55 1016.0
20260507001735 77 235 0.9 6.1 0.00 0.00 0.00 56 1016.0
20260507001633 77 228 0.9 6.1 0.00 0.00 0.00 56 1016.0
20260507001534 77 228 0.9 6.1 0.00 0.00 0.00 56 1016.1
20260507001450 77 231 0.9 6.1 0.00 0.00 0.00 56 1016.1
20260507001431 77 231 1.7 6.1 0.00 0.00 0.00 56 1016.1
20260507001329 77 225 1.7 6.1 0.00 0.00 0.00 56 1016.0
20260507001230 77 283 1.7 6.1 0.00 0.00 0.00 55 1016.1
20260507001127 77 271 1.7 6.1 0.00 0.00 0.00 54 1016.1
20260507001021 77 302 1.7 6.1 0.00 0.00 0.00 54 1016.1
20260507000942 77 225 0.9 6.1 0.00 0.00 0.00 53 1016.1
20260507000921 78 231 0.9 6.1 0.00 0.00 0.00 53 1016.1
20260507000822 78 229 0.9 4.3 0.00 0.00 0.00 54 1016.1
20260507000719 78 204 1.7 4.3 0.00 0.00 0.00 53 1016.1
20260507000619 78 153 1.7 5.2 0.00 0.00 0.00 53 1016.1
20260507000513 78 168 1.7 5.2 0.00 0.00 0.00 54 1016.2
20260507000442 78 240 1.7 5.2 0.00 0.00 0.00 54 1016.1
20260507000413 78 238 0.9 5.2 0.00 0.00 0.00 53 1016.1
20260507000314 78 203 0.9 5.2 0.00 0.00 0.00 53 1016.2
20260507000213 78 160 0.9 5.2 0.00 0.00 0.00 54 1016.2
20260507000113 78 283 0.9 5.2 0.00 0.00 0.00 54 1016.2
20260507000009 78 283 1.7 5.2 0.00 0.00 0.00 54 1016.2
20260506235939 78 283 1.7 5.2 0.00 0.00 0.00 54 1016.2
20260506235907 78 283 1.7 5.2 0.00 0.00 0.00 54 1016.2
20260506235808 78 316 1.7 7.8 0.00 0.00 0.00 54 1016.2
20260506235706 78 231 1.7 7.8 0.00 0.00 0.00 53 1016.2
20260506235605 78 248 1.7 7.8 0.00 0.00 0.00 54 1016.2
20260506235459 78 210 1.7 7.8 0.00 0.00 0.00 55 1016.2
20260506235439 78 210 1.7 7.8 0.00 0.00 0.00 53 1016.2
20260506235359 78 210 1.7 7.8 0.00 0.00 0.00 54 1016.2
20260506235259 78 201 1.7 7.8 0.00 0.00 0.00 54 1016.2
20260506235159 78 312 1.7 7.8 0.00 0.00 0.00 54 1016.2
20260506235100 78 231 1.7 7.8 0.00 0.00 0.00 54 1016.2
20260506234953 78 263 1.7 7.8 0.00 0.00 0.00 54 1016.2
20260506234937 78 263 0.9 7.8 0.00 0.00 0.00 52 1016.2
20260506234853 78 219 0.9 7.8 0.00 0.00 0.00 52 1016.2
20260506234754 78 243 0.9 4.3 0.00 0.00 0.00 53 1016.3
20260506234653 78 139 0.9 4.3 0.00 0.00 0.00 52 1016.3
20260506234551 78 134 0.0 4.3 0.00 0.00 0.00 53 1016.3
20260506234437 78 276 0.9 4.3 0.00 0.00 0.00 53 1016.3
20260506234349 78 267 0.9 4.3 0.00 0.00 0.00 53 1016.3
20260506234251 78 267 0.9 4.3 0.00 0.00 0.00 54 1016.3
20260506234159 78 102 0.9 4.3 0.00 0.00 0.00 54 1016.3
20260506234149 78 267 0.9 4.3 0.00 0.00 0.00 54 1016.3
20260506234056 78 273 0.9 4.3 0.00 0.00 0.00 54 1016.3
20260506234047 78 102 0.9 4.3 0.00 0.00 0.00 54 1016.3
20260506233849 78 219 0.9 4.3 0.00 0.00 0.00 54 1016.3
20260506233747 77 228 0.9 4.3 0.00 0.00 0.00 54 1016.3
20260506233647 77 298 1.7 4.3 0.00 0.00 0.00 54 1016.3
20260506233547 77 300 1.7 5.2 0.00 0.00 0.00 53 1016.3
20260506233500 77 278 1.7 5.2 0.00 0.00 0.00 53 1016.3
20260506233449 77 280 1.7 5.2 0.00 0.00 0.00 53 1016.3
20260506233347 77 312 1.7 5.2 0.00 0.00 0.00 53 1016.3
20260506233248 78 307 1.7 5.2 0.00 0.00 0.00 53 1016.3
20260506233147 78 300 1.7 5.2 0.00 0.00 0.00 52 1016.3
20260506233048 78 316 1.7 5.2 0.00 0.00 0.00 52 1016.3
20260506232947 78 339 0.9 5.2 0.00 0.00 0.00 53 1016.4
20260506232933 78 308 0.9 5.2 0.00 0.00 0.00 53 1016.3
20260506232847 78 309 0.9 5.2 0.00 0.00 0.00 53 1016.3
20260506232748 78 332 0.9 5.2 0.00 0.00 0.00 53 1016.3
20260506232648 78 332 0.9 5.2 0.00 0.00 0.00 52 1016.3
20260506232547 78 40 0.9 4.3 0.00 0.00 0.00 53 1016.3
20260506232446 78 229 0.9 4.3 0.00 0.00 0.00 52 1016.3
20260506232347 78 158 0.9 4.3 0.00 0.00 0.00 52 1016.3
20260506232245 78 233 0.9 4.3 0.00 0.00 0.00 53 1016.3
20260506232145 78 232 0.9 4.3 0.00 0.00 0.00 53 1016.4
20260506232045 78 340 0.9 4.3 0.00 0.00 0.00 52 1016.3
20260506231946 78 337 0.9 4.3 0.00 0.00 0.00 53 1016.3
20260506231933 78 336 0.9 4.3 0.00 0.00 0.00 53 1016.3
20260506231845 78 228 0.9 4.3 0.00 0.00 0.00 54 1016.3
20260506231745 78 190 0.9 4.3 0.00 0.00 0.00 54 1016.3
20260506231644 78 256 0.9 4.3 0.00 0.00 0.00 53 1016.3
20260506231543 77 340 0.9 3.5 0.00 0.00 0.00 53 1016.3
20260506231446 77 339 0.9 3.5 0.00 0.00 0.00 53 1016.4
20260506231436 77 309 0.9 3.5 0.00 0.00 0.00 53 1016.4
20260506231343 77 309 0.9 3.5 0.00 0.00 0.00 53 1016.4
20260506231243 77 320 0.9 3.5 0.00 0.00 0.00 53 1016.4
20260506231153 77 325 0.9 3.5 0.00 0.00 0.00 53 1016.5
20260506231143 77 317 0.9 3.5 0.00 0.00 0.00 52 1016.4
20260506231050 77 304 0.9 3.5 0.00 0.00 0.00 53 1016.5
20260506231042 77 325 0.9 3.5 0.00 0.00 0.00 53 1016.5
20260506230837 77 325 0.9 4.3 0.00 0.00 0.00 53 1016.5
20260506230735 77 314 0.9 4.3 0.00 0.00 0.00 54 1016.5
20260506230635 77 314 0.9 4.3 0.00 0.00 0.00 53 1016.6
20260506230535 77 314 0.9 4.3 0.00 0.00 0.00 52 1016.6
20260506230434 77 314 0.9 4.3 0.00 0.00 0.00 52 1016.6
20260506230333 77 113 1.7 6.1 0.00 0.00 0.00 52 1016.6
20260506230233 77 115 1.7 6.1 0.00 0.00 0.00 52 1016.6
20260506230129 77 300 1.7 7.0 0.00 0.00 0.00 52 1016.7
20260506230026 77 300 1.7 7.0 0.00 0.00 0.00 52 1016.7
20260506225931 77 305 1.7 7.0 0.00 0.00 0.00 52 1016.8
20260506225923 77 318 1.7 7.0 0.00 0.00 0.00 52 1016.8
20260506225823 77 351 1.7 7.0 0.00 0.00 0.00 53 1016.7
20260506225724 77 211 1.7 7.0 0.00 0.00 0.00 52 1016.8
20260506225621 77 210 1.7 7.0 0.00 0.00 0.00 53 1016.8
20260506225516 77 168 1.7 7.0 0.00 0.00 0.00 52 1016.8
20260506225429 77 319 1.7 7.0 0.00 0.00 0.00 51 1016.9
20260506225415 77 314 1.7 7.0 0.00 0.00 0.00 51 1016.9
20260506225315 78 11 0.9 7.0 0.00 0.00 0.00 50 1016.9
20260506225216 78 339 0.9 7.0 0.00 0.00 0.00 51 1016.8
20260506225115 78 13 0.9 2.6 0.00 0.00 0.00 52 1016.8
20260506225015 78 297 0.9 2.6 0.00 0.00 0.00 52 1016.8
20260506224930 78 239 0.9 2.6 0.00 0.00 0.00 53 1016.8
20260506224913 78 222 0.9 2.6 0.00 0.00 0.00 53 1016.8
20260506224813 78 304 0.9 2.6 0.00 0.00 0.00 53 1016.9
20260506224713 78 304 0.9 2.6 0.00 0.00 0.00 52 1016.9
20260506224611 78 303 0.9 2.6 0.00 0.00 0.00 51 1016.9
20260506224511 78 303 0.9 2.6 0.00 0.00 0.00 51 1016.9
20260506224409 78 303 0.9 2.6 0.00 0.00 0.00 51 1016.9
20260506224309 78 43 0.9 3.5 0.00 0.00 0.00 51 1017.0
20260506224207 78 6 1.7 5.2 0.00 0.00 0.00 51 1017.0
20260506224107 78 274 1.7 5.2 0.00 0.00 0.00 51 1017.0
20260506224005 78 274 1.7 5.2 0.00 0.00 0.00 51 1017.0
20260506223927 77 321 1.7 5.2 0.00 0.00 0.00 51 1017.0
20260506223905 77 163 1.7 5.2 0.00 0.00 0.00 51 1017.0
20260506223805 77 141 1.7 5.2 0.00 0.00 0.00 52 1017.1
20260506223705 77 119 1.7 5.2 0.00 0.00 0.00 52 1017.1
20260506223646 77 153 0.9 5.2 0.00 0.00 0.00 51 1017.1
20260506223607 77 161 1.7 5.2 0.00 0.00 0.00 52 1017.1
20260506223538 77 161 1.7 5.2 0.00 0.00 0.00 51 1017.1
20260506223403 77 161 0.9 5.2 0.00 0.00 0.00 51 1017.1
20260506223303 77 210 0.9 5.2 0.00 0.00 0.00 50 1017.2
20260506223204 78 246 0.9 4.3 0.00 0.00 0.00 50 1017.2
20260506223104 78 216 0.9 3.5 0.00 0.00 0.00 51 1017.2
20260506223004 78 214 0.9 3.5 0.00 0.00 0.00 53 1017.2
20260506222925 78 200 0.9 3.5 0.00 0.00 0.00 53 1017.2
20260506222903 78 216 0.9 3.5 0.00 0.00 0.00 53 1017.2
20260506222802 77 208 0.9 3.5 0.00 0.00 0.00 54 1017.2
20260506222659 77 295 0.9 3.5 0.00 0.00 0.00 54 1017.3
20260506222557 77 295 0.9 3.5 0.00 0.00 0.00 54 1017.2
20260506222456 77 295 1.7 6.1 0.00 0.00 0.00 54 1017.3
20260506222426 76 295 1.7 6.1 0.00 0.00 0.00 54 1017.3
20260506222355 76 295 1.7 7.0 0.00 0.00 0.00 53 1017.3
20260506222256 76 295 1.7 7.0 0.00 0.00 0.00 53 1017.3
20260506222153 76 128 1.7 7.0 0.00 0.00 0.00 53 1017.3
20260506222124 76 229 1.7 7.0 0.00 0.00 0.00 53 1017.3
20260506221953 76 300 1.7 7.0 0.00 0.00 0.00 52 1017.4
20260506221925 76 303 1.7 7.0 0.00 0.00 0.00 52 1017.4
20260506221853 76 325 1.7 7.0 0.00 0.00 0.00 52 1017.4
20260506221753 76 310 1.7 7.0 0.00 0.00 0.00 54 1017.5
20260506221653 76 314 1.7 7.0 0.00 0.00 0.00 52 1017.5
20260506221554 77 337 1.7 7.0 0.00 0.00 0.00 52 1017.4
20260506221453 77 310 1.7 7.0 0.00 0.00 0.00 51 1017.5
20260506221422 77 340 1.7 7.0 0.00 0.00 0.00 51 1017.5
20260506221353 77 343 1.7 4.3 0.00 0.00 0.00 51 1017.5
20260506221253 78 4 0.9 4.3 0.00 0.00 0.00 51 1017.5
20260506221151 78 356 0.9 4.3 0.00 0.00 0.00 51 1017.5
20260506221051 78 343 0.9 4.3 0.00 0.00 0.00 52 1017.6
20260506220951 78 358 0.9 4.3 0.00 0.00 0.00 53 1017.6
20260506220922 78 54 0.9 4.3 0.00 0.00 0.00 52 1017.6
20260506220851 78 30 0.9 2.6 0.00 0.00 0.00 53 1017.6
20260506220751 77 139 0.9 3.5 0.00 0.00 0.00 52 1017.6
20260506220652 77 97 0.9 3.5 0.00 0.00 0.00 52 1017.6
20260506220548 77 226 0.9 3.5 0.00 0.00 0.00 53 1017.6
20260506220447 76 147 0.9 3.5 0.00 0.00 0.00 54 1017.6
20260506220420 76 138 0.9 3.5 0.00 0.00 0.00 54 1017.6
20260506220347 76 217 0.9 3.5 0.00 0.00 0.00 53 1017.6
20260506220247 76 309 0.9 3.5 0.00 0.00 0.00 53 1017.7
20260506220147 76 309 0.9 3.5 0.00 0.00 0.00 52 1017.7
20260506220047 76 309 1.7 3.5 0.00 0.00 0.00 52 1017.7
20260506215947 76 317 1.7 6.1 0.00 0.00 0.00 52 1017.7
20260506215921 76 354 1.7 6.1 0.00 0.00 0.00 53 1017.7
20260506215910 76 323 1.7 6.1 0.00 0.00 0.00 52 1017.8
20260506215847 76 43 1.7 6.1 0.00 0.00 0.00 53 1017.7
20260506215802 76 308 1.7 6.1 0.00 0.00 0.00 53 1017.7
20260506215647 76 304 0.9 6.1 0.00 0.00 0.00 53 1017.7
20260506215547 76 46 1.7 6.1 0.00 0.00 0.00 52 1017.8
20260506215533 76 323 1.7 6.1 0.00 0.00 0.00 52 1017.8
20260506215413 77 341 0.9 5.2 0.00 0.00 0.00 52 1017.8
20260506215347 77 12 1.7 6.1 0.00 0.00 0.00 52 1017.8
20260506215305 77 317 1.7 6.1 0.00 0.00 0.00 52 1017.8
20260506215147 77 60 1.7 6.1 0.00 0.00 0.00 53 1017.8
20260506215047 77 311 1.7 6.1 0.00 0.00 0.00 53 1017.8
20260506215032 77 328 0.9 5.2 0.00 0.00 0.00 52 1017.8
20260506214841 77 317 0.9 4.3 0.00 0.00 0.00 53 1017.8
20260506214741 77 314 0.9 4.3 0.00 0.00 0.00 52 1017.8
20260506214647 78 353 0.0 2.6 0.00 0.00 0.00 51 1017.8
20260506214641 78 307 0.9 4.3 0.00 0.00 0.00 51 1017.8
20260506214541 78 222 0.0 2.6 0.00 0.00 0.00 50 1017.8
20260506214530 78 136 0.0 2.6 0.00 0.00 0.00 51 1017.8
20260506214338 78 326 0.9 2.6 0.00 0.00 0.00 50 1017.9
20260506214236 78 230 0.9 2.6 0.00 0.00 0.00 51 1017.9
20260506214135 78 228 0.9 3.5 0.00 0.00 0.00 51 1017.9
20260506214033 78 239 0.9 3.5 0.00 0.00 0.00 51 1017.9
20260506213933 78 217 0.9 3.5 0.00 0.00 0.00 53 1017.9
20260506213919 77 217 0.9 3.5 0.00 0.00 0.00 53 1017.9
20260506213827 77 216 0.9 3.5 0.00 0.00 0.00 53 1017.9
20260506213731 77 218 0.9 3.5 0.00 0.00 0.00 54 1017.9
20260506213627 76 218 0.9 3.5 0.00 0.00 0.00 53 1018.0
20260506213527 76 152 0.9 3.5 0.00 0.00 0.00 52 1018.0
20260506213418 76 146 0.9 5.2 0.00 0.00 0.00 51 1018.0
20260506213324 76 219 0.9 5.2 0.00 0.00 0.00 51 1018.0
20260506213223 77 217 0.9 5.2 0.00 0.00 0.00 51 1018.1
20260506213123 77 284 0.9 5.2 0.00 0.00 0.00 53 1018.1
20260506213021 77 284 0.9 5.2 0.00 0.00 0.00 51 1018.1
20260506212922 77 8 0.9 5.2 0.00 0.00 0.00 52 1018.1
20260506212815 77 349 0.9 5.2 0.00 0.00 0.00 51 1018.0
20260506212713 77 332 0.9 5.2 0.00 0.00 0.00 52 1018.1
20260506212613 77 332 0.9 5.2 0.00 0.00 0.00 52 1018.1
20260506212511 77 332 1.7 5.2 0.00 0.00 0.00 52 1018.1
20260506212418 77 310 1.7 6.1 0.00 0.00 0.00 53 1018.1
20260506212411 77 309 1.7 6.1 0.00 0.00 0.00 53 1018.1
20260506212307 77 236 1.7 6.1 0.00 0.00 0.00 53 1018.1
20260506212207 76 12 1.7 6.1 0.00 0.00 0.00 54 1018.1
20260506212107 76 238 1.7 6.1 0.00 0.00 0.00 53 1018.1
20260506212008 76 200 1.7 6.1 0.00 0.00 0.00 54 1018.2
20260506211906 76 307 1.7 6.1 0.00 0.00 0.00 52 1018.2
20260506211759 76 323 1.7 6.1 0.00 0.00 0.00 52 1018.2
20260506211659 76 307 1.7 6.1 0.00 0.00 0.00 51 1018.2
20260506211603 77 316 0.9 6.1 0.00 0.00 0.00 50 1018.2
20260506211457 78 307 0.9 6.1 0.00 0.00 0.00 50 1018.2
20260506211416 78 305 0.9 5.2 0.00 0.00 0.00 51 1018.2
20260506211357 78 302 0.9 4.3 0.00 0.00 0.00 51 1018.2
20260506211253 78 20 0.9 4.3 0.00 0.00 0.00 51 1018.3
20260506211153 78 335 0.9 2.6 0.00 0.00 0.00 51 1018.3
20260506211141 78 124 0.9 3.5 0.00 0.00 0.00 51 1018.3
20260506211053 78 339 0.9 3.5 0.00 0.00 0.00 51 1018.3
20260506211025 78 124 0.9 3.5 0.00 0.00 0.00 51 1018.2
20260506210852 78 231 0.9 3.5 0.00 0.00 0.00 53 1018.2
20260506210747 78 228 0.9 3.5 0.00 0.00 0.00 52 1018.2
20260506210647 78 228 0.9 3.5 0.00 0.00 0.00 52 1018.3
20260506210547 77 177 0.9 3.5 0.00 0.00 0.00 53 1018.3
20260506210416 77 177 0.9 3.5 0.00 0.00 0.00 53 1018.3
20260506210343 77 136 0.9 3.5 0.00 0.00 0.00 53 1018.3
20260506210237 76 121 0.9 3.5 0.00 0.00 0.00 52 1018.3
20260506210141 76 139 0.9 3.5 0.00 0.00 0.00 53 1018.3
20260506210137 76 174 0.9 3.5 0.00 0.00 0.00 53 1018.3
20260506210038 76 139 0.9 3.5 0.00 0.00 0.00 54 1018.3
20260506210025 76 113 0.9 3.5 0.00 0.00 0.00 53 1018.3
20260506205835 76 308 0.9 3.5 0.00 0.00 0.00 53 1018.4
20260506205729 76 318 0.9 2.6 0.00 0.00 0.00 55 1018.4
20260506205629 76 318 0.9 4.3 0.00 0.00 0.00 56 1018.4
20260506205530 75 317 0.9 4.3 0.00 0.00 0.00 56 1018.4
20260506205429 75 318 1.7 4.3 0.00 0.00 0.00 55 1018.4
20260506205413 75 317 1.7 5.2 0.00 0.00 0.00 55 1018.4
20260506205329 75 333 1.7 5.2 0.00 0.00 0.00 57 1018.5
20260506205225 74 149 1.7 5.2 0.00 0.00 0.00 56 1018.4
20260506205124 74 228 1.7 5.2 0.00 0.00 0.00 55 1018.5
20260506205023 74 231 1.7 5.2 0.00 0.00 0.00 57 1018.5
20260506204913 74 319 1.7 5.2 0.00 0.00 0.00 56 1018.6
20260506204821 74 319 1.7 5.2 0.00 0.00 0.00 55 1018.6
20260506204721 74 308 1.7 5.2 0.00 0.00 0.00 56 1018.6
20260506204621 74 321 1.7 5.2 0.00 0.00 0.00 56 1018.6
20260506204522 74 312 1.7 5.2 0.00 0.00 0.00 57 1018.6
20260506204423 74 328 1.7 5.2 0.00 0.00 0.00 56 1018.6
20260506204412 74 318 1.7 4.3 0.00 0.00 0.00 56 1018.6
20260506204322 74 307 1.7 4.3 0.00 0.00 0.00 57 1018.6
20260506204222 74 307 1.7 4.3 0.00 0.00 0.00 55 1018.6
20260506204121 74 307 1.7 4.3 0.00 0.00 0.00 54 1018.6
20260506204021 74 338 1.7 4.3 0.00 0.00 0.00 55 1018.6
20260506203922 74 338 1.7 4.3 0.00 0.00 0.00 55 1018.6
20260506203911 74 337 1.7 4.3 0.00 0.00 0.00 55 1018.6
20260506203821 74 338 1.7 4.3 0.00 0.00 0.00 55 1018.7
20260506203719 74 15 1.7 4.3 0.00 0.00 0.00 56 1018.6
20260506203617 74 6 1.7 4.3 0.00 0.00 0.00 56 1018.7
20260506203517 74 12 1.7 4.3 0.00 0.00 0.00 56 1018.7
20260506203422 74 308 1.7 4.3 0.00 0.00 0.00 56 1018.8
20260506203412 74 356 1.7 4.3 0.00 0.00 0.00 56 1018.8
20260506203317 74 5 0.9 3.5 0.00 0.00 0.00 57 1018.8
20260506203217 74 308 0.9 3.5 0.00 0.00 0.00 56 1018.8
20260506203133 74 323 0.9 3.5 0.00 0.00 0.00 56 1018.8
20260506203117 74 339 0.9 3.5 0.00 0.00 0.00 56 1018.8
20260506203031 74 16 0.9 3.5 0.00 0.00 0.00 56 1018.8
20260506203020 74 323 0.9 3.5 0.00 0.00 0.00 56 1018.8
20260506202814 74 322 0.9 1.7 0.00 0.00 0.00 57 1018.8
20260506202713 74 321 0.9 1.7 0.00 0.00 0.00 55 1018.8
20260506202611 74 323 0.0 1.7 0.00 0.00 0.00 54 1018.8
20260506202507 74 323 0.0 1.7 0.00 0.00 0.00 54 1018.8
20260506202407 74 328 0.0 2.6 0.00 0.00 0.00 54 1018.8
20260506202306 74 338 0.0 2.6 0.00 0.00 0.00 56 1018.8
20260506202205 74 34 0.9 2.6 0.00 0.00 0.00 57 1018.8
20260506202103 74 322 0.9 2.6 0.00 0.00 0.00 58 1018.8
20260506201911 73 77 0.9 4.3 0.00 0.00 0.00 58 1018.9
20260506201857 73 77 0.9 4.3 0.00 0.00 0.00 58 1018.9
20260506201757 72 200 0.9 4.3 0.00 0.00 0.00 58 1018.9
20260506201655 72 311 1.7 4.3 0.00 0.00 0.00 58 1018.9
20260506201559 72 311 1.7 4.3 0.00 0.00 0.00 58 1018.9
20260506201455 72 311 1.7 4.3 0.00 0.00 0.00 56 1019.0
20260506201410 72 335 0.9 4.3 0.00 0.00 0.00 57 1019.0
20260506201353 73 314 0.9 4.3 0.00 0.00 0.00 57 1019.0
20260506201253 73 11 0.9 4.3 0.00 0.00 0.00 57 1019.0
20260506201151 73 12 0.9 4.3 0.00 0.00 0.00 56 1019.0
20260506201049 73 15 0.9 4.3 0.00 0.00 0.00 56 1019.1
20260506200946 73 290 0.9 4.3 0.00 0.00 0.00 57 1019.1
20260506200906 73 332 0.9 4.3 0.00 0.00 0.00 56 1019.1
20260506200843 73 332 0.9 4.3 0.00 0.00 0.00 56 1019.1
20260506200743 74 298 0.9 4.3 0.00 0.00 0.00 56 1019.1
20260506200643 74 12 0.9 2.6 0.00 0.00 0.00 55 1019.1
20260506200541 74 8 0.9 2.6 0.00 0.00 0.00 56 1019.1
20260506200435 73 8 0.9 2.6 0.00 0.00 0.00 55 1019.1
20260506200409 74 8 0.9 2.6 0.00 0.00 0.00 55 1019.1
20260506200336 74 8 0.9 2.6 0.00 0.00 0.00 55 1019.1
20260506200235 74 26 0.9 2.6 0.00 0.00 0.00 56 1019.1
20260506200135 74 69 0.9 2.6 0.00 0.00 0.00 56 1019.2
20260506200035 73 111 0.9 2.6 0.00 0.00 0.00 57 1019.1
20260506195931 73 340 0.9 2.6 0.00 0.00 0.00 57 1019.1
20260506195907 73 26 0.9 2.6 0.00 0.00 0.00 57 1019.1
20260506195829 73 77 0.9 2.6 0.00 0.00 0.00 56 1019.1
20260506195729 73 60 0.9 2.6 0.00 0.00 0.00 57 1019.2
20260506195629 73 78 0.9 2.6 0.00 0.00 0.00 57 1019.2
20260506195529 73 60 0.9 2.6 0.00 0.00 0.00 57 1019.2
20260506195425 73 40 0.9 2.6 0.00 0.00 0.00 58 1019.2
20260506195407 73 328 0.9 2.6 0.00 0.00 0.00 58 1019.2
20260506195325 73 328 0.9 3.5 0.00 0.00 0.00 58 1019.2
20260506195225 72 86 0.9 3.5 0.00 0.00 0.00 59 1019.2
20260506195130 71 235 0.9 5.2 0.00 0.00 0.00 60 1019.2
20260506195123 72 102 0.9 3.5 0.00 0.00 0.00 60 1019.2
20260506195026 71 113 0.9 3.5 0.00 0.00 0.00 61 1019.2
20260506195017 71 236 0.9 5.2 0.00 0.00 0.00 60 1019.2
20260506194815 71 319 1.7 6.1 0.00 0.00 0.00 59 1019.2
20260506194713 71 319 1.7 6.1 0.00 0.00 0.00 59 1019.2
20260506194613 71 299 1.7 6.1 0.00 0.00 0.00 58 1019.3
20260506194514 71 300 1.7 6.1 0.00 0.00 0.00 58 1019.2
20260506194411 71 305 1.7 6.1 0.00 0.00 0.00 59 1019.3
20260506194306 72 321 1.7 6.1 0.00 0.00 0.00 58 1019.3
20260506194207 72 340 1.7 6.1 0.00 0.00 0.00 58 1019.4
20260506194105 72 354 1.7 6.1 0.00 0.00 0.00 57 1019.4
20260506194006 72 300 1.7 6.1 0.00 0.00 0.00 58 1019.4
20260506193909 72 33 1.7 6.1 0.00 0.00 0.00 57 1019.4
20260506193859 72 339 1.7 6.1 0.00 0.00 0.00 57 1019.4
20260506193759 72 4 1.7 4.3 0.00 0.00 0.00 57 1019.4
20260506193700 72 51 1.7 4.3 0.00 0.00 0.00 57 1019.4
20260506193559 72 11 1.7 4.3 0.00 0.00 0.00 60 1019.4
20260506193459 72 158 1.7 4.3 0.00 0.00 0.00 59 1019.4
20260506193405 72 315 1.7 4.3 0.00 0.00 0.00 58 1019.5
20260506193356 72 314 1.7 4.3 0.00 0.00 0.00 58 1019.5
20260506193255 72 314 1.7 4.3 0.00 0.00 0.00 58 1019.5
20260506193155 72 63 1.7 4.3 0.00 0.00 0.00 57 1019.5
20260506193054 72 124 1.7 4.3 0.00 0.00 0.00 57 1019.5
20260506192951 72 148 1.7 4.3 0.00 0.00 0.00 56 1019.5
20260506192905 72 134 1.7 4.3 0.00 0.00 0.00 56 1019.5
20260506192845 72 124 1.7 4.3 0.00 0.00 0.00 56 1019.5
20260506192745 72 11 1.7 3.5 0.00 0.00 0.00 57 1019.6
20260506192643 72 346 1.7 4.3 0.00 0.00 0.00 58 1019.6
20260506192543 72 348 1.7 4.3 0.00 0.00 0.00 62 1019.5
20260506192444 71 225 1.7 4.3 0.00 0.00 0.00 61 1019.6
20260506192406 71 245 1.7 4.3 0.00 0.00 0.00 61 1019.6
20260506192341 71 236 1.7 6.1 0.00 0.00 0.00 61 1019.6
20260506192241 71 116 1.7 6.1 0.00 0.00 0.00 61 1019.7
20260506192142 71 321 1.7 6.1 0.00 0.00 0.00 61 1019.6
20260506192123 71 311 1.7 6.1 0.00 0.00 0.00 60 1019.6
20260506192041 71 321 1.7 6.1 0.00 0.00 0.00 60 1019.7
20260506192015 71 311 1.7 6.1 0.00 0.00 0.00 60 1019.6
20260506191841 71 323 1.7 6.1 0.00 0.00 0.00 60 1019.7
20260506191739 71 301 0.9 6.1 0.00 0.00 0.00 60 1019.6
20260506191640 72 347 0.9 6.1 0.00 0.00 0.00 60 1019.7
20260506191540 72 309 0.9 6.1 0.00 0.00 0.00 60 1019.7
20260506191439 72 319 0.9 6.1 0.00 0.00 0.00 60 1019.7
20260506191406 72 319 0.9 6.1 0.00 0.00 0.00 60 1019.7
20260506191339 72 335 0.9 3.5 0.00 0.00 0.00 61 1019.7
20260506191239 72 350 0.9 4.3 0.00 0.00 0.00 61 1019.7
20260506191140 71 359 0.9 4.3 0.00 0.00 0.00 61 1019.7
20260506191127 71 99 1.7 4.3 0.00 0.00 0.00 61 1019.8
20260506191039 71 18 1.7 4.3 0.00 0.00 0.00 61 1019.7
20260506191015 71 18 1.7 4.3 0.00 0.00 0.00 61 1019.8
20260506190839 71 29 0.9 4.3 0.00 0.00 0.00 62 1019.7
20260506190739 71 317 0.9 4.3 0.00 0.00 0.00 63 1019.7
20260506190640 71 304 0.9 4.3 0.00 0.00 0.00 62 1019.8
20260506190538 71 304 0.9 4.3 0.00 0.00 0.00 61 1019.8
20260506190437 71 301 0.9 4.3 0.00 0.00 0.00 61 1019.8
20260506190420 71 5 0.9 4.3 0.00 0.00 0.00 60 1019.8
20260506190335 72 302 0.9 4.3 0.00 0.00 0.00 61 1019.8
20260506190233 72 34 0.9 3.5 0.00 0.00 0.00 61 1019.8
20260506190127 72 15 0.9 3.5 0.00 0.00 0.00 63 1019.8
20260506190028 71 305 0.9 3.5 0.00 0.00 0.00 63 1019.8
20260506185927 71 307 0.9 3.5 0.00 0.00 0.00 64 1019.8
20260506185907 71 307 0.9 3.5 0.00 0.00 0.00 63 1019.8
20260506185825 71 307 0.9 3.5 0.00 0.00 0.00 63 1019.8
20260506185725 71 343 0.9 3.5 0.00 0.00 0.00 64 1019.8
20260506185625 71 317 0.9 2.6 0.00 0.00 0.00 64 1019.8
20260506185524 70 318 0.9 2.6 0.00 0.00 0.00 64 1019.8
20260506185424 70 20 0.9 2.6 0.00 0.00 0.00 64 1019.8
20260506185359 70 20 0.9 2.6 0.00 0.00 0.00 64 1019.8
20260506185323 70 43 0.9 3.5 0.00 0.00 0.00 64 1019.8
20260506185223 70 43 1.7 3.5 0.00 0.00 0.00 63 1019.8
20260506185115 70 335 1.7 4.3 0.00 0.00 0.00 63 1019.8
20260506185015 70 341 1.7 4.3 0.00 0.00 0.00 63 1019.8
20260506184916 70 332 1.7 4.3 0.00 0.00 0.00 64 1019.8
20260506184858 70 332 1.7 4.3 0.00 0.00 0.00 65 1019.8
20260506184813 70 342 1.7 4.3 0.00 0.00 0.00 65 1019.9
20260506184711 70 308 1.7 4.3 0.00 0.00 0.00 66 1019.9
20260506184607 70 235 1.7 4.3 0.00 0.00 0.00 65 1019.8
20260506184505 70 218 1.7 4.3 0.00 0.00 0.00 64 1019.9
20260506184410 70 198 0.9 4.3 0.00 0.00 0.00 63 1019.9
20260506184356 70 204 0.9 4.3 0.00 0.00 0.00 63 1019.9
20260506184303 71 229 0.9 4.3 0.00 0.00 0.00 64 1019.9
20260506184203 71 242 0.9 3.5 0.00 0.00 0.00 64 1019.9
20260506184101 71 256 0.9 3.5 0.00 0.00 0.00 64 1019.9
20260506184002 71 238 0.9 2.6 0.00 0.00 0.00 64 1019.9
20260506183855 71 238 0.9 2.6 0.00 0.00 0.00 63 1019.9
20260506183759 71 238 0.9 2.6 0.00 0.00 0.00 62 1019.9
20260506183657 71 238 0.9 2.6 0.00 0.00 0.00 62 1019.9
20260506183553 71 238 0.9 2.6 0.00 0.00 0.00 63 1020.0
20260506183451 71 217 0.9 2.6 0.00 0.00 0.00 64 1020.0
20260506183351 71 217 0.9 2.6 0.00 0.00 0.00 64 1020.0
20260506183251 71 217 0.9 2.6 0.00 0.00 0.00 61 1020.0
20260506183149 71 217 0.9 2.6 0.00 0.00 0.00 62 1020.1
20260506183047 71 228 0.0 2.6 0.00 0.00 0.00 63 1020.1
20260506182948 71 214 0.0 1.7 0.00 0.00 0.00 64 1020.1
20260506182853 71 345 0.0 1.7 0.00 0.00 0.00 64 1020.0
20260506182847 71 344 0.0 1.7 0.00 0.00 0.00 64 1020.1
20260506182748 71 345 0.0 1.7 0.00 0.00 0.00 64 1020.1
20260506182645 71 344 0.0 1.7 0.00 0.00 0.00 64 1020.1
20260506182545 71 335 0.0 1.7 0.00 0.00 0.00 64 1020.1
20260506182443 71 67 0.0 1.7 0.00 0.00 0.00 64 1020.1
20260506182343 71 338 0.0 1.7 0.00 0.00 0.00 64 1020.1
20260506182244 70 294 0.0 1.7 0.00 0.00 0.00 64 1020.1
20260506182143 70 293 0.0 2.6 0.00 0.00 0.00 67 1020.1
20260506182044 70 293 0.9 2.6 0.00 0.00 0.00 67 1020.1
20260506181942 69 290 0.9 2.6 0.00 0.00 0.00 68 1020.1
20260506181851 69 290 0.9 2.6 0.00 0.00 0.00 68 1020.1
20260506181839 69 353 0.9 2.6 0.00 0.00 0.00 68 1020.1
20260506181739 69 208 0.9 2.6 0.00 0.00 0.00 68 1020.1
20260506181637 69 219 0.9 2.6 0.00 0.00 0.00 69 1020.1
20260506181626 69 243 0.9 2.6 0.00 0.00 0.00 67 1020.1
20260506181537 69 232 0.9 2.6 0.00 0.00 0.00 69 1020.1
20260506181514 69 243 0.9 2.6 0.00 0.00 0.00 68 1020.1
20260506181337 69 243 0.9 2.6 0.00 0.00 0.00 67 1020.1
20260506181235 69 243 0.9 2.6 0.00 0.00 0.00 66 1020.1
20260506181133 69 224 0.9 2.6 0.00 0.00 0.00 67 1020.1
20260506181115 69 330 0.9 1.7 0.00 0.00 0.00 67 1020.1
20260506181033 69 127 0.9 2.6 0.00 0.00 0.00 68 1020.1
20260506180959 69 330 0.9 1.7 0.00 0.00 0.00 67 1020.1
20260506180831 69 330 0.9 1.7 0.00 0.00 0.00 67 1020.1
20260506180734 69 330 0.9 1.7 0.00 0.00 0.00 67 1020.1
20260506180631 69 138 0.9 1.7 0.00 0.00 0.00 67 1020.1
20260506180531 69 138 0.9 1.7 0.00 0.00 0.00 67 1020.1
20260506180431 69 138 0.9 1.7 0.00 0.00 0.00 67 1020.1
20260506180350 69 139 0.9 1.7 0.00 0.00 0.00 67 1020.1
20260506180325 69 138 0.9 1.7 0.00 0.00 0.00 67 1020.2
20260506180225 68 146 0.0 1.7 0.00 0.00 0.00 67 1020.2
20260506180125 68 146 0.0 1.7 0.00 0.00 0.00 68 1020.2
20260506180023 68 146 0.0 1.7 0.00 0.00 0.00 68 1020.2
20260506175924 68 183 0.0 1.7 0.00 0.00 0.00 70 1020.2
20260506175852 68 224 0.0 0.9 0.00 0.00 0.00 70 1020.2
20260506175817 68 224 0.0 1.7 0.00 0.00 0.00 70 1020.2
20260506175717 68 224 0.9 1.7 0.00 0.00 0.00 70 1020.2
20260506175617 68 224 0.9 1.7 0.00 0.00 0.00 69 1020.2
20260506175517 68 224 0.9 2.6 0.00 0.00 0.00 70 1020.2
20260506175417 67 224 0.9 2.6 0.00 0.00 0.00 72 1020.2
20260506175348 67 224 0.9 2.6 0.00 0.00 0.00 72 1020.2
20260506175313 67 224 0.9 2.6 0.00 0.00 0.00 72 1020.2
20260506175211 67 224 0.9 2.6 0.00 0.00 0.00 72 1020.2
20260506175110 67 224 0.9 2.6 0.00 0.00 0.00 72 1020.2
20260506175009 66 133 0.9 2.6 0.00 0.00 0.00 72 1020.2
20260506174909 66 132 0.9 2.6 0.00 0.00 0.00 72 1020.2
20260506174846 66 133 0.9 2.6 0.00 0.00 0.00 72 1020.2
20260506174805 66 115 0.9 2.6 0.00 0.00 0.00 72 1020.2
20260506174703 66 120 0.9 2.6 0.00 0.00 0.00 71 1020.2
20260506174603 66 204 0.9 2.6 0.00 0.00 0.00 71 1020.2
20260506174504 66 235 0.0 2.6 0.00 0.00 0.00 72 1020.1
20260506174346 66 238 0.0 1.7 0.00 0.00 0.00 72 1020.2
20260506174258 66 217 0.0 1.7 0.00 0.00 0.00 71 1020.2
20260506174155 66 217 0.0 1.7 0.00 0.00 0.00 71 1020.2
20260506174055 66 217 0.0 1.7 0.00 0.00 0.00 72 1020.1
20260506173955 66 222 0.9 3.5 0.00 0.00 0.00 72 1020.2
20260506173845 65 222 0.9 3.5 0.00 0.00 0.00 72 1020.2
20260506173750 65 222 0.9 3.5 0.00 0.00 0.00 72 1020.2
20260506173649 65 222 0.9 3.5 0.00 0.00 0.00 72 1020.2
20260506173550 65 222 0.9 3.5 0.00 0.00 0.00 72 1020.2
20260506173447 65 217 0.9 3.5 0.00 0.00 0.00 73 1020.2
20260506173351 65 217 0.9 3.5 0.00 0.00 0.00 72 1020.2
20260506173241 65 217 0.9 3.5 0.00 0.00 0.00 72 1020.2
20260506173141 66 222 0.9 3.5 0.00 0.00 0.00 71 1020.2
20260506173042 66 238 0.0 3.5 0.00 0.00 0.00 71 1020.3
20260506172941 66 231 0.0 2.6 0.00 0.00 0.00 72 1020.2
20260506172842 66 195 0.0 2.6 0.00 0.00 0.00 74 1020.3
20260506172735 65 138 0.0 2.6 0.00 0.00 0.00 75 1020.2
20260506172635 65 139 0.0 2.6 0.00 0.00 0.00 75 1020.2
20260506172536 65 139 0.0 2.6 0.00 0.00 0.00 75 1020.2
20260506172433 65 139 0.0 2.6 0.00 0.00 0.00 75 1020.2
20260506172340 65 126 0.0 2.6 0.00 0.00 0.00 75 1020.2
20260506172333 65 125 0.0 2.6 0.00 0.00 0.00 75 1020.2
20260506172233 64 231 0.9 2.6 0.00 0.00 0.00 75 1020.2
20260506172131 64 231 0.9 3.5 0.00 0.00 0.00 75 1020.2
20260506172058 64 231 0.9 3.5 0.00 0.00 0.00 75 1020.2
20260506172031 64 231 0.9 3.5 0.00 0.00 0.00 75 1020.2
20260506171948 64 231 0.9 3.5 0.00 0.00 0.00 75 1020.2
20260506171827 64 231 0.9 3.5 0.00 0.00 0.00 75 1020.2
20260506171723 64 231 0.9 3.5 0.00 0.00 0.00 75 1020.2
20260506171623 64 231 0.9 3.5 0.00 0.00 0.00 76 1020.2
20260506171523 64 231 0.9 3.5 0.00 0.00 0.00 76 1020.2
20260506171421 63 231 1.7 3.5 0.00 0.00 0.00 76 1020.2
20260506171319 63 231 0.9 3.5 0.00 0.00 0.00 76 1020.2
20260506171215 63 240 0.9 3.5 0.00 0.00 0.00 76 1020.2
20260506171114 63 242 0.9 3.5 0.00 0.00 0.00 76 1020.2
20260506171013 63 222 0.9 3.5 0.00 0.00 0.00 76 1020.2
20260506170911 63 222 0.9 3.5 0.00 0.00 0.00 76 1020.2
20260506170811 63 222 0.9 3.5 0.00 0.00 0.00 76 1020.3
20260506170705 63 222 0.9 3.5 0.00 0.00 0.00 76 1020.3
20260506170605 63 222 0.9 3.5 0.00 0.00 0.00 75 1020.3
20260506170557 63 227 0.9 2.6 0.00 0.00 0.00 77 1020.3
20260506170505 63 226 0.0 3.5 0.00 0.00 0.00 76 1020.3
20260506170444 63 226 0.0 2.6 0.00 0.00 0.00 77 1020.3
20260506170305 63 226 0.9 2.6 0.00 0.00 0.00 77 1020.3
20260506170201 63 226 0.9 2.6 0.00 0.00 0.00 76 1020.2
20260506170100 63 226 0.9 3.5 0.00 0.00 0.00 77 1020.3
20260506170000 63 231 0.9 3.5 0.00 0.00 0.00 78 1020.2
20260506165857 63 231 0.9 3.5 0.00 0.00 0.00 78 1020.2
20260506165833 63 231 0.9 3.5 0.00 0.00 0.00 77 1020.2
20260506165758 62 231 0.9 3.5 0.00 0.00 0.00 77 1020.2
20260506165651 62 146 0.9 3.5 0.00 0.00 0.00 78 1020.2
20260506165552 62 146 0.9 3.5 0.00 0.00 0.00 78 1020.2
20260506165451 62 147 1.7 3.5 0.00 0.00 0.00 78 1020.2
20260506165351 62 147 1.7 3.5 0.00 0.00 0.00 78 1020.2
20260506165331 62 146 1.7 3.5 0.00 0.00 0.00 78 1020.1
20260506165252 62 151 1.7 3.5 0.00 0.00 0.00 78 1020.1
20260506165145 62 136 1.7 3.5 0.00 0.00 0.00 77 1020.2
20260506165046 62 211 1.7 3.5 0.00 0.00 0.00 77 1020.2
20260506164946 62 226 1.7 3.5 0.00 0.00 0.00 77 1020.2
20260506164833 62 219 1.7 3.5 0.00 0.00 0.00 77 1020.2
20260506164745 62 212 1.7 3.5 0.00 0.00 0.00 77 1020.2
20260506164645 62 236 1.7 3.5 0.00 0.00 0.00 78 1020.3
20260506164545 62 155 0.9 3.5 0.00 0.00 0.00 78 1020.2
20260506164446 62 138 1.7 3.5 0.00 0.00 0.00 78 1020.2
20260506164343 62 149 1.7 3.5 0.00 0.00 0.00 78 1020.2
20260506164329 62 150 0.9 3.5 0.00 0.00 0.00 79 1020.2
20260506164244 62 141 0.9 3.5 0.00 0.00 0.00 79 1020.2
20260506164143 62 148 1.7 3.5 0.00 0.00 0.00 78 1020.2
20260506164043 62 212 1.7 3.5 0.00 0.00 0.00 78 1020.2
20260506163944 62 226 0.9 4.3 0.00 0.00 0.00 78 1020.2
20260506163829 62 239 0.9 4.3 0.00 0.00 0.00 79 1020.2
20260506163743 62 239 0.9 4.3 0.00 0.00 0.00 78 1020.2
20260506163641 62 239 0.9 4.3 0.00 0.00 0.00 78 1020.2
20260506163540 62 239 0.9 4.3 0.00 0.00 0.00 78 1020.2
20260506163440 62 239 0.9 4.3 0.00 0.00 0.00 78 1020.2
20260506163331 62 248 0.9 4.3 0.00 0.00 0.00 78 1020.2
20260506163139 62 153 0.9 4.3 0.00 0.00 0.00 78 1020.2
20260506163039 62 217 0.9 4.3 0.00 0.00 0.00 79 1020.2
20260506162935 62 138 0.9 1.7 0.00 0.00 0.00 79 1020.2
20260506162830 62 231 0.9 1.7 0.00 0.00 0.00 80 1020.2
20260506162733 62 231 0.9 1.7 0.00 0.00 0.00 79 1020.2
20260506162632 62 231 0.9 1.7 0.00 0.00 0.00 79 1020.2
20260506162531 62 214 0.0 2.6 0.00 0.00 0.00 80 1020.2
20260506162427 61 137 0.0 2.6 0.00 0.00 0.00 80 1020.2
20260506162333 61 222 0.0 2.6 0.00 0.00 0.00 80 1020.2
20260506162325 61 221 0.0 2.6 0.00 0.00 0.00 80 1020.2
20260506162225 61 222 0.9 3.5 0.00 0.00 0.00 80 1020.2
20260506162125 61 222 0.9 3.5 0.00 0.00 0.00 80 1020.1
20260506162025 61 222 0.9 3.5 0.00 0.00 0.00 81 1020.1
20260506161921 61 151 0.9 4.3 0.00 0.00 0.00 81 1020.1
20260506161819 61 225 0.9 4.3 0.00 0.00 0.00 81 1020.1
20260506161719 61 225 0.9 4.3 0.00 0.00 0.00 81 1020.1
20260506161618 60 224 0.9 4.3 0.00 0.00 0.00 81 1020.1
20260506161517 60 208 0.9 4.3 0.00 0.00 0.00 81 1020.1
20260506161417 60 174 0.9 4.3 0.00 0.00 0.00 81 1020.2
20260506161328 60 174 0.9 4.3 0.00 0.00 0.00 80 1020.2
20260506161315 60 177 0.9 4.3 0.00 0.00 0.00 80 1020.2
20260506161215 60 146 1.7 4.3 0.00 0.00 0.00 80 1020.2
20260506161113 60 226 0.9 4.3 0.00 0.00 0.00 80 1020.2
20260506161011 60 176 0.9 4.3 0.00 0.00 0.00 81 1020.3
20260506160907 60 157 0.9 3.5 0.00 0.00 0.00 81 1020.2
20260506160807 60 238 0.9 3.5 0.00 0.00 0.00 81 1020.2
20260506160707 60 238 0.9 3.5 0.00 0.00 0.00 81 1020.2
20260506160605 60 238 0.9 3.5 0.00 0.00 0.00 80 1020.2
20260506160504 60 238 0.9 3.5 0.00 0.00 0.00 80 1020.2
20260506160359 60 238 0.9 3.5 0.00 0.00 0.00 81 1020.2
20260506160319 60 238 0.0 3.5 0.00 0.00 0.00 81 1020.2
20260506160257 60 216 0.0 3.5 0.00 0.00 0.00 81 1020.2
20260506160157 60 222 0.0 2.6 0.00 0.00 0.00 81 1020.2
20260506160056 60 205 0.0 2.6 0.00 0.00 0.00 81 1020.2
20260506155955 60 205 0.9 3.5 0.00 0.00 0.00 82 1020.2
20260506155826 60 205 0.9 3.5 0.00 0.00 0.00 83 1020.3
20260506155649 60 205 0.9 3.5 0.00 0.00 0.00 82 1020.3
20260506155549 60 205 0.9 3.5 0.00 0.00 0.00 82 1020.2
20260506155449 60 205 0.9 3.5 0.00 0.00 0.00 81 1020.3
20260506155344 60 204 0.9 3.5 0.00 0.00 0.00 81 1020.3
20260506155314 60 203 0.9 3.5 0.00 0.00 0.00 81 1020.3
20260506155243 60 232 0.9 3.5 0.00 0.00 0.00 81 1020.2
20260506155143 60 236 0.9 3.5 0.00 0.00 0.00 82 1020.3
20260506155043 60 232 0.9 3.5 0.00 0.00 0.00 82 1020.2
20260506154944 60 190 0.9 2.6 0.00 0.00 0.00 82 1020.2
20260506154813 60 233 0.9 2.6 0.00 0.00 0.00 82 1020.2
20260506154737 60 224 0.9 3.5 0.00 0.00 0.00 82 1020.2
20260506154635 60 218 0.9 3.5 0.00 0.00 0.00 82 1020.2
20260506154535 60 150 0.9 3.5 0.00 0.00 0.00 82 1020.2
20260506154435 60 232 0.9 3.5 0.00 0.00 0.00 82 1020.3
20260506154312 59 207 0.9 3.5 0.00 0.00 0.00 82 1020.2
20260506154233 59 207 0.9 3.5 0.00 0.00 0.00 82 1020.3
20260506154129 59 208 0.9 3.5 0.00 0.00 0.00 82 1020.2
20260506154029 59 205 0.9 3.5 0.00 0.00 0.00 82 1020.2
20260506153927 59 231 0.9 3.5 0.00 0.00 0.00 82 1020.2
20260506153813 59 231 0.9 3.5 0.00 0.00 0.00 82 1020.2
20260506153721 59 233 0.9 3.5 0.00 0.00 0.00 82 1020.2
20260506153621 59 159 0.9 3.5 0.00 0.00 0.00 82 1020.2
20260506153519 59 217 0.9 3.5 0.00 0.00 0.00 82 1020.2
20260506153420 59 242 0.9 3.5 0.00 0.00 0.00 82 1020.2
20260506153315 59 138 0.9 3.5 0.00 0.00 0.00 82 1020.2
20260506153214 59 134 0.9 3.5 0.00 0.00 0.00 82 1020.2
20260506153113 59 233 0.9 3.5 0.00 0.00 0.00 82 1020.2
20260506153014 59 214 0.9 2.6 0.00 0.00 0.00 82 1020.2
20260506152913 59 222 0.9 2.6 0.00 0.00 0.00 83 1020.2
20260506152815 59 204 0.9 3.5 0.00 0.00 0.00 83 1020.2
20260506152807 59 212 0.9 3.5 0.00 0.00 0.00 83 1020.2
20260506152708 59 214 0.9 3.5 0.00 0.00 0.00 83 1020.2
20260506152605 59 215 0.9 3.5 0.00 0.00 0.00 83 1020.2
20260506152505 59 218 0.9 3.5 0.00 0.00 0.00 82 1020.2
20260506152405 59 219 0.9 3.5 0.00 0.00 0.00 82 1020.1
20260506152312 59 220 0.9 3.5 0.00 0.00 0.00 83 1020.1
20260506152306 59 219 0.9 3.5 0.00 0.00 0.00 83 1020.1
20260506152203 59 160 0.9 3.5 0.00 0.00 0.00 82 1020.1
20260506152102 58 214 0.9 4.3 0.00 0.00 0.00 83 1020.1
20260506152001 58 239 1.7 4.3 0.00 0.00 0.00 82 1020.2
20260506151859 58 239 0.9 4.3 0.00 0.00 0.00 82 1020.1
20260506151809 58 243 0.9 4.3 0.00 0.00 0.00 83 1020.2
20260506151755 58 232 0.9 4.3 0.00 0.00 0.00 83 1020.2
20260506151655 58 232 0.9 4.3 0.00 0.00 0.00 83 1020.2
20260506151555 58 232 0.9 4.3 0.00 0.00 0.00 83 1020.2
20260506151453 58 232 0.9 4.3 0.00 0.00 0.00 82 1020.2
20260506151351 58 233 0.9 4.3 0.00 0.00 0.00 83 1020.1
20260506151310 58 233 0.9 4.3 0.00 0.00 0.00 83 1020.2
20260506151245 58 217 0.9 4.3 0.00 0.00 0.00 82 1020.2
20260506151145 58 232 0.9 4.3 0.00 0.00 0.00 83 1020.1
20260506151045 58 242 0.9 3.5 0.00 0.00 0.00 83 1020.1
20260506150943 58 193 0.9 2.6 0.00 0.00 0.00 83 1020.1
20260506150843 58 193 0.9 2.6 0.00 0.00 0.00 84 1020.1
20260506150810 58 193 0.9 2.6 0.00 0.00 0.00 83 1020.1
20260506150741 58 240 0.9 2.6 0.00 0.00 0.00 84 1020.1
20260506150641 58 187 0.9 2.6 0.00 0.00 0.00 84 1020.1
20260506150543 58 187 0.9 2.6 0.00 0.00 0.00 83 1020.0
20260506150441 58 233 0.9 2.6 0.00 0.00 0.00 84 1020.1
20260506150342 58 233 0.9 2.6 0.00 0.00 0.00 84 1020.1
20260506150307 58 228 0.9 2.6 0.00 0.00 0.00 84 1020.1
20260506150241 58 243 0.9 2.6 0.00 0.00 0.00 84 1020.0
20260506150141 58 207 0.9 2.6 0.00 0.00 0.00 84 1020.1
20260506150042 58 225 0.9 3.5 0.00 0.00 0.00 84 1020.0
20260506145941 58 233 0.9 3.5 0.00 0.00 0.00 84 1020.0
20260506145841 58 256 0.9 3.5 0.00 0.00 0.00 84 1020.1
20260506145820 58 240 0.9 3.5 0.00 0.00 0.00 84 1020.1
20260506145741 58 240 0.9 3.5 0.00 0.00 0.00 84 1020.1
20260506145639 58 240 0.9 3.5 0.00 0.00 0.00 84 1020.1
20260506145543 58 240 0.9 3.5 0.00 0.00 0.00 84 1020.1
20260506145439 58 240 0.9 3.5 0.00 0.00 0.00 84 1020.1
20260506145339 58 229 0.9 3.5 0.00 0.00 0.00 84 1020.1
20260506145306 58 229 0.9 3.5 0.00 0.00 0.00 84 1020.1
20260506145239 58 238 0.9 3.5 0.00 0.00 0.00 84 1020.1
20260506145139 58 150 0.9 3.5 0.00 0.00 0.00 84 1020.1
20260506145035 58 140 0.9 3.5 0.00 0.00 0.00 84 1020.1
20260506144933 58 217 0.9 3.5 0.00 0.00 0.00 84 1020.1
20260506144834 58 192 0.9 3.5 0.00 0.00 0.00 84 1020.2
20260506144807 58 193 0.9 3.5 0.00 0.00 0.00 84 1020.2
20260506144734 58 210 0.9 3.5 0.00 0.00 0.00 84 1020.1
20260506144633 58 165 0.9 3.5 0.00 0.00 0.00 84 1020.1
20260506144533 58 217 0.9 3.5 0.00 0.00 0.00 84 1020.1
20260506144431 58 158 0.9 3.5 0.00 0.00 0.00 84 1020.1
20260506144305 58 158 0.9 3.5 0.00 0.00 0.00 84 1020.2
20260506144233 58 158 0.9 3.5 0.00 0.00 0.00 84 1020.1
20260506144128 58 217 0.9 3.5 0.00 0.00 0.00 84 1020.1
20260506144029 58 218 0.9 3.5 0.00 0.00 0.00 84 1020.1
20260506143927 58 224 0.9 2.6 0.00 0.00 0.00 84 1020.1
20260506143827 58 238 0.9 2.6 0.00 0.00 0.00 84 1020.0
20260506143759 58 237 0.9 2.6 0.00 0.00 0.00 84 1020.0
20260506143727 58 236 0.9 2.6 0.00 0.00 0.00 84 1020.0
20260506143627 58 236 0.0 2.6 0.00 0.00 0.00 84 1020.0
20260506143527 58 225 0.0 2.6 0.00 0.00 0.00 84 1020.0
20260506143428 58 225 0.0 2.6 0.00 0.00 0.00 84 1020.0
20260506143327 58 139 0.9 2.6 0.00 0.00 0.00 84 1020.0
20260506143257 58 140 0.9 2.6 0.00 0.00 0.00 84 1020.0
20260506143225 58 157 0.9 2.6 0.00 0.00 0.00 84 1020.0
20260506143126 58 162 0.9 2.6 0.00 0.00 0.00 85 1020.0
20260506143023 58 160 0.9 2.6 0.00 0.00 0.00 85 1020.0
20260506142921 58 203 0.9 2.6 0.00 0.00 0.00 85 1020.0
20260506142821 58 203 0.9 2.6 0.00 0.00 0.00 85 1020.0
20260506142757 58 165 0.9 2.6 0.00 0.00 0.00 85 1020.0
20260506142722 58 150 0.9 2.6 0.00 0.00 0.00 85 1020.0
20260506142622 57 149 0.9 2.6 0.00 0.00 0.00 85 1019.9
20260506142522 57 150 0.9 2.6 0.00 0.00 0.00 85 1020.0
20260506142421 57 149 0.9 2.6 0.00 0.00 0.00 85 1019.9
20260506142320 57 172 0.9 2.6 0.00 0.00 0.00 85 1019.9
20260506142256 57 149 0.9 2.6 0.00 0.00 0.00 85 1019.9
20260506142219 57 141 0.9 2.6 0.00 0.00 0.00 85 1019.9
20260506142119 57 222 0.9 2.6 0.00 0.00 0.00 85 1019.9
20260506142017 57 210 0.9 2.6 0.00 0.00 0.00 85 1019.9
20260506141915 57 142 0.9 2.6 0.00 0.00 0.00 85 1019.9
20260506141811 57 146 0.9 2.6 0.00 0.00 0.00 85 1019.9
20260506141757 57 145 0.9 2.6 0.00 0.00 0.00 85 1019.9
20260506141711 57 146 0.9 2.6 0.00 0.00 0.00 85 1019.8
20260506141611 57 221 0.9 2.6 0.00 0.00 0.00 85 1019.8
20260506141510 57 158 0.9 2.6 0.00 0.00 0.00 85 1019.8
20260506141407 57 188 0.9 2.6 0.00 0.00 0.00 85 1019.8
20260506141256 57 183 0.9 2.6 0.00 0.00 0.00 85 1019.8
20260506141201 57 207 0.9 2.6 0.00 0.00 0.00 85 1019.8
20260506141102 57 224 0.9 2.6 0.00 0.00 0.00 85 1019.8
20260506140959 57 224 0.9 2.6 0.00 0.00 0.00 85 1019.8
20260506140859 57 224 0.9 2.6 0.00 0.00 0.00 85 1019.8
20260506140755 57 224 0.9 2.6 0.00 0.00 0.00 85 1019.8
20260506140653 57 224 0.0 2.6 0.00 0.00 0.00 85 1019.7
20260506140554 57 219 0.0 2.6 0.00 0.00 0.00 85 1019.7
20260506140454 57 204 0.0 1.7 0.00 0.00 0.00 85 1019.7
20260506140353 57 207 0.0 0.9 0.00 0.00 0.00 85 1019.7
20260506140249 57 210 0.0 0.9 0.00 0.00 0.00 85 1019.7
20260506140148 57 210 0.0 0.9 0.00 0.00 0.00 85 1019.7
20260506140047 57 210 0.0 0.9 0.00 0.00 0.00 86 1019.6
20260506135945 57 210 0.0 0.9 0.00 0.00 0.00 86 1019.6
20260506135845 57 210 0.0 0.9 0.00 0.00 0.00 85 1019.6
20260506135743 57 210 0.0 0.9 0.00 0.00 0.00 86 1019.6
20260506135644 57 210 0.0 0.9 0.00 0.00 0.00 86 1019.6
20260506135543 57 212 0.0 0.9 0.00 0.00 0.00 86 1019.6
20260506135441 57 214 0.0 0.9 0.00 0.00 0.00 86 1019.5
20260506135339 57 214 0.0 0.9 0.00 0.00 0.00 86 1019.6
20260506135236 57 214 0.0 0.9 0.00 0.00 0.00 86 1019.6
20260506135135 57 214 0.0 1.7 0.00 0.00 0.00 86 1019.5
20260506135035 57 214 0.0 1.7 0.00 0.00 0.00 86 1019.5
20260506134933 57 214 0.0 1.7 0.00 0.00 0.00 86 1019.5
20260506134830 57 214 0.0 1.7 0.00 0.00 0.00 86 1019.5
20260506134727 57 214 0.0 1.7 0.00 0.00 0.00 86 1019.5
20260506134625 57 214 0.0 1.7 0.00 0.00 0.00 86 1019.4
20260506134525 57 214 0.0 1.7 0.00 0.00 0.00 86 1019.5
20260506134423 57 214 0.0 1.7 0.00 0.00 0.00 86 1019.4
20260506134324 57 214 0.9 1.7 0.00 0.00 0.00 86 1019.5
20260506134253 57 214 0.9 1.7 0.00 0.00 0.00 86 1019.5
20260506134219 57 214 0.0 1.7 0.00 0.00 0.00 86 1019.5
20260506134119 57 140 0.0 1.7 0.00 0.00 0.00 86 1019.4
20260506134019 57 139 0.9 1.7 0.00 0.00 0.00 86 1019.4
20260506133920 57 140 0.9 1.7 0.00 0.00 0.00 86 1019.5
20260506133819 57 139 0.0 1.7 0.00 0.00 0.00 86 1019.5
20260506133751 57 139 0.0 1.7 0.00 0.00 0.00 86 1019.5
20260506133719 57 110 0.0 1.7 0.00 0.00 0.00 86 1019.5
20260506133620 57 141 0.0 0.9 0.00 0.00 0.00 86 1019.5
20260506133519 57 155 0.0 0.9 0.00 0.00 0.00 86 1019.4
20260506133418 57 155 0.0 0.9 0.00 0.00 0.00 86 1019.5
20260506133317 57 158 0.0 0.9 0.00 0.00 0.00 86 1019.5
20260506133250 57 141 0.0 1.7 0.00 0.00 0.00 86 1019.5
20260506133218 57 141 0.0 1.7 0.00 0.00 0.00 86 1019.5
20260506133118 57 199 0.0 1.7 0.00 0.00 0.00 86 1019.5
20260506133021 57 198 0.0 1.7 0.00 0.00 0.00 86 1019.5
20260506132915 57 188 0.0 1.7 0.00 0.00 0.00 86 1019.5
20260506132815 57 188 0.0 1.7 0.00 0.00 0.00 86 1019.5
20260506132747 57 188 0.0 1.7 0.00 0.00 0.00 86 1019.5
20260506132715 57 192 0.0 1.7 0.00 0.00 0.00 86 1019.5
20260506132615 57 192 0.0 1.7 0.00 0.00 0.00 86 1019.5
20260506132515 57 207 0.0 1.7 0.00 0.00 0.00 86 1019.5
20260506132413 57 207 0.0 1.7 0.00 0.00 0.00 86 1019.5
20260506132313 57 158 0.0 1.7 0.00 0.00 0.00 86 1019.5
20260506132247 57 158 0.0 1.7 0.00 0.00 0.00 86 1019.5
20260506132213 57 158 0.0 1.7 0.00 0.00 0.00 86 1019.5
20260506132113 57 158 0.0 1.7 0.00 0.00 0.00 86 1019.5
20260506132013 57 158 0.0 1.7 0.00 0.00 0.00 86 1019.5
20260506131911 57 158 0.0 1.7 0.00 0.00 0.00 86 1019.5
20260506131812 57 158 0.9 1.7 0.00 0.00 0.00 86 1019.5
20260506131747 57 158 0.9 1.7 0.00 0.00 0.00 86 1019.5
20260506131709 57 158 0.9 1.7 0.00 0.00 0.00 86 1019.5
20260506131607 57 158 0.9 1.7 0.00 0.00 0.00 86 1019.5
20260506131511 57 215 0.0 1.7 0.00 0.00 0.00 86 1019.4
20260506131507 57 158 0.9 1.7 0.00 0.00 0.00 86 1019.5
20260506131406 57 158 0.9 1.7 0.00 0.00 0.00 86 1019.4
20260506131355 57 158 0.0 1.7 0.00 0.00 0.00 86 1019.4
20260506131204 57 133 0.0 1.7 0.00 0.00 0.00 86 1019.4
20260506131101 57 138 0.0 0.9 0.00 0.00 0.00 86 1019.5
20260506131007 57 139 0.0 0.9 0.00 0.00 0.00 86 1019.4
20260506130957 57 139 0.0 0.9 0.00 0.00 0.00 86 1019.5
20260506130902 57 138 0.0 0.9 0.00 0.00 0.00 86 1019.5
20260506130853 57 139 0.0 0.9 0.00 0.00 0.00 86 1019.5
20260506130655 57 139 0.0 0.9 0.00 0.00 0.00 86 1019.4
20260506130553 57 138 0.0 0.9 0.00 0.00 0.00 86 1019.4
20260506130453 57 138 0.0 0.9 0.00 0.00 0.00 86 1019.4
20260506130351 57 138 0.0 0.9 0.00 0.00 0.00 86 1019.4
20260506130244 57 138 0.0 0.9 0.00 0.00 0.00 86 1019.3
20260506130151 57 138 0.0 0.9 0.00 0.00 0.00 86 1019.4
20260506130051 57 139 0.0 0.9 0.00 0.00 0.00 86 1019.4
20260506125951 57 139 0.0 0.9 0.00 0.00 0.00 86 1019.4
20260506125849 57 138 0.0 0.9 0.00 0.00 0.00 86 1019.4
20260506125753 57 139 0.0 0.9 0.00 0.00 0.00 86 1019.4
20260506125742 57 138 0.0 0.9 0.00 0.00 0.00 86 1019.4
20260506125649 57 138 0.0 0.9 0.00 0.00 0.00 86 1019.4
20260506125547 57 138 0.0 0.9 0.00 0.00 0.00 86 1019.4
20260506125447 57 138 0.0 0.9 0.00 0.00 0.00 86 1019.4
20260506125348 57 139 0.0 0.9 0.00 0.00 0.00 86 1019.4
20260506125241 57 139 0.0 0.9 0.00 0.00 0.00 86 1019.3
20260506125148 57 139 0.0 1.7 0.00 0.00 0.00 86 1019.3
20260506125047 57 138 0.0 1.7 0.00 0.00 0.00 86 1019.3
20260506125010 57 138 0.9 1.7 0.00 0.00 0.00 86 1019.3
20260506124948 57 138 0.0 1.7 0.00 0.00 0.00 86 1019.3
20260506124901 57 138 0.9 1.7 0.00 0.00 0.00 86 1019.3
20260506124850 57 138 0.9 1.7 0.00 0.00 0.00 86 1019.3
20260506124641 57 139 0.9 1.7 0.00 0.00 0.00 86 1019.3
20260506124541 57 139 0.9 2.6 0.00 0.00 0.00 86 1019.3
20260506124439 57 138 0.9 2.6 0.00 0.00 0.00 86 1019.3
20260506124340 57 138 0.9 2.6 0.00 0.00 0.00 86 1019.3
20260506124243 57 138 0.9 2.6 0.00 0.00 0.00 86 1019.2
20260506124237 57 139 0.9 2.6 0.00 0.00 0.00 86 1019.2
20260506124133 57 139 0.9 2.6 0.00 0.00 0.00 86 1019.3
20260506124033 57 139 0.9 2.6 0.00 0.00 0.00 86 1019.2
20260506123934 57 126 0.0 2.6 0.00 0.00 0.00 86 1019.2
20260506123833 57 120 0.0 2.6 0.00 0.00 0.00 86 1019.2
20260506123739 57 136 0.0 2.6 0.00 0.00 0.00 86 1019.2
20260506123728 57 141 0.0 2.6 0.00 0.00 0.00 86 1019.2
20260506123627 57 135 0.0 2.6 0.00 0.00 0.00 86 1019.2
20260506123527 57 124 0.0 2.6 0.00 0.00 0.00 86 1019.2
20260506123427 57 124 0.0 2.6 0.00 0.00 0.00 86 1019.2
20260506123325 57 124 0.9 2.6 0.00 0.00 0.00 86 1019.2
20260506123221 57 124 0.9 2.6 0.00 0.00 0.00 86 1019.2
20260506123121 57 124 0.9 2.6 0.00 0.00 0.00 86 1019.1
20260506123021 57 124 0.9 2.6 0.00 0.00 0.00 86 1019.2
20260506122922 57 124 0.9 2.6 0.00 0.00 0.00 86 1019.1
20260506122819 57 124 0.9 2.6 0.00 0.00 0.00 86 1019.1
20260506122715 57 124 0.9 2.6 0.00 0.00 0.00 86 1019.1
20260506122616 57 127 0.0 2.6 0.00 0.00 0.00 86 1019.1
20260506122516 57 136 0.0 2.6 0.00 0.00 0.00 86 1019.1
20260506122454 57 225 0.0 1.7 0.00 0.00 0.00 86 1019.1
20260506122413 57 140 0.0 2.6 0.00 0.00 0.00 86 1019.1
20260506122349 57 218 0.0 1.7 0.00 0.00 0.00 86 1019.1
20260506122208 57 225 0.0 1.7 0.00 0.00 0.00 86 1019.1
20260506122105 57 225 0.0 1.7 0.00 0.00 0.00 86 1019.1
20260506122005 57 225 0.0 1.7 0.00 0.00 0.00 86 1019.1
20260506121903 57 225 0.0 1.7 0.00 0.00 0.00 86 1019.1
20260506121804 57 225 0.0 1.7 0.00 0.00 0.00 86 1019.1
20260506121736 57 225 0.9 1.7 0.00 0.00 0.00 86 1019.1
20260506121659 57 225 0.9 1.7 0.00 0.00 0.00 86 1019.1
20260506121559 57 225 0.9 1.7 0.00 0.00 0.00 86 1019.0
20260506121459 57 160 0.9 1.7 0.00 0.00 0.00 86 1019.0
20260506121359 57 160 0.9 1.7 0.00 0.00 0.00 86 1019.1
20260506121257 57 161 0.9 1.7 0.00 0.00 0.00 85 1019.1
20260506121235 57 160 0.9 1.7 0.00 0.00 0.00 85 1019.1
20260506121158 57 160 0.9 1.7 0.00 0.00 0.00 85 1019.1
20260506121051 57 159 0.9 1.7 0.00 0.00 0.00 85 1019.1
20260506120952 57 127 0.9 1.7 0.00 0.00 0.00 85 1019.1
20260506120851 57 127 0.9 1.7 0.00 0.00 0.00 85 1019.1
20260506120734 57 131 0.0 1.7 0.00 0.00 0.00 85 1019.1
20260506120647 57 134 0.0 1.7 0.00 0.00 0.00 85 1019.1
20260506120547 57 133 0.0 1.7 0.00 0.00 0.00 85 1019.0
20260506120452 57 150 0.0 0.9 0.00 0.00 0.00 85 1019.0
20260506120445 57 133 0.0 1.7 0.00 0.00 0.00 85 1019.0
20260506120352 57 124 0.0 1.7 0.00 0.00 0.00 85 1019.0
20260506120344 57 150 0.0 0.9 0.00 0.00 0.00 85 1019.0
20260506120139 57 150 0.0 0.9 0.00 0.00 0.00 85 1018.9
20260506120039 57 149 0.0 0.9 0.00 0.00 0.00 85 1018.9
20260506115940 57 150 0.0 0.9 0.00 0.00 0.00 85 1019.0
20260506115839 57 150 0.0 0.9 0.00 0.00 0.00 85 1019.0
20260506115732 57 150 0.0 0.9 0.00 0.00 0.00 85 1019.0
20260506115639 57 150 0.0 0.9 0.00 0.00 0.00 85 1019.0
20260506115540 57 149 0.0 0.9 0.00 0.00 0.00 85 1019.0
20260506115439 57 149 0.0 0.9 0.00 0.00 0.00 85 1019.0
20260506115340 57 150 0.0 0.9 0.00 0.00 0.00 85 1019.1
20260506115244 57 150 0.0 0.9 0.00 0.00 0.00 85 1019.1
20260506115234 57 149 0.0 0.9 0.00 0.00 0.00 85 1019.1
20260506115139 57 152 0.0 1.7 0.00 0.00 0.00 85 1019.1
20260506115037 57 129 0.0 1.7 0.00 0.00 0.00 85 1019.1
20260506114937 57 127 0.0 1.7 0.00 0.00 0.00 85 1019.0
20260506114835 57 127 0.0 1.7 0.00 0.00 0.00 85 1019.0
20260506114733 57 127 0.0 1.7 0.00 0.00 0.00 85 1019.0
20260506114633 57 127 0.0 1.7 0.00 0.00 0.00 85 1019.0
20260506114531 57 127 0.0 1.7 0.00 0.00 0.00 85 1018.9
20260506114431 57 120 0.0 1.7 0.00 0.00 0.00 85 1019.0
20260506114331 57 120 0.0 1.7 0.00 0.00 0.00 85 1019.0
20260506114233 57 120 0.0 1.7 0.00 0.00 0.00 85 1019.0
20260506114131 57 228 0.0 0.9 0.00 0.00 0.00 85 1019.0
20260506114032 57 228 0.0 1.7 0.00 0.00 0.00 85 1019.0
20260506113926 57 228 0.0 1.7 0.00 0.00 0.00 85 1019.0
20260506113825 57 228 0.0 1.7 0.00 0.00 0.00 85 1018.9
20260506113725 57 228 0.0 1.7 0.00 0.00 0.00 85 1018.9
20260506113622 57 193 0.0 1.7 0.00 0.00 0.00 85 1018.9
20260506113526 57 193 0.0 1.7 0.00 0.00 0.00 85 1018.9
20260506113423 57 193 0.0 1.7 0.00 0.00 0.00 85 1018.9
20260506113322 57 193 0.0 1.7 0.00 0.00 0.00 85 1018.9
20260506113236 57 192 0.0 1.7 0.00 0.00 0.00 85 1018.8
20260506113221 57 193 0.0 1.7 0.00 0.00 0.00 85 1018.8
20260506113120 57 194 0.0 1.7 0.00 0.00 0.00 85 1018.9
20260506113018 57 183 0.0 0.9 0.00 0.00 0.00 85 1018.9
20260506112913 57 186 0.0 0.9 0.00 0.00 0.00 85 1018.9
20260506112811 57 186 0.0 1.7 0.00 0.00 0.00 85 1018.8
20260506112711 57 186 0.0 1.7 0.00 0.00 0.00 85 1018.8
20260506112611 57 186 0.0 1.7 0.00 0.00 0.00 85 1018.8
20260506112509 57 186 0.0 1.7 0.00 0.00 0.00 85 1018.8
20260506112409 57 186 0.0 1.7 0.00 0.00 0.00 85 1018.8
20260506112308 57 186 0.0 1.7 0.00 0.00 0.00 85 1018.7
20260506112234 57 186 0.0 1.7 0.00 0.00 0.00 85 1018.7
20260506112207 57 187 0.0 1.7 0.00 0.00 0.00 85 1018.7
20260506112106 57 204 0.0 1.7 0.00 0.00 0.00 85 1018.7
20260506112004 57 204 0.0 2.6 0.00 0.00 0.00 85 1018.7
20260506111858 57 204 0.0 2.6 0.00 0.00 0.00 85 1018.7
20260506111732 57 253 0.9 2.6 0.00 0.00 0.00 85 1018.8
20260506111659 57 253 0.9 2.6 0.00 0.00 0.00 85 1018.8
20260506111557 57 253 0.9 2.6 0.00 0.00 0.00 85 1018.7
20260506111456 57 253 0.9 2.6 0.00 0.00 0.00 85 1018.7
20260506111231 57 253 0.9 3.5 0.00 0.00 0.00 85 1018.7
20260506111149 57 253 0.9 3.5 0.00 0.00 0.00 85 1018.7
20260506111048 57 253 0.9 3.5 0.00 0.00 0.00 85 1018.7
20260506110947 57 144 0.9 3.5 0.00 0.00 0.00 85 1018.6
20260506110841 57 162 0.9 3.5 0.00 0.00 0.00 85 1018.6
20260506110743 57 226 0.9 3.5 0.00 0.00 0.00 85 1018.5
20260506110641 57 226 0.9 3.5 0.00 0.00 0.00 85 1018.5
20260506110541 57 233 0.9 3.5 0.00 0.00 0.00 85 1018.5
20260506110441 57 229 0.9 3.5 0.00 0.00 0.00 85 1018.5
20260506110335 57 262 0.9 3.5 0.00 0.00 0.00 85 1018.5
20260506110241 57 168 0.9 2.6 0.00 0.00 0.00 85 1018.5
20260506110231 57 167 0.9 2.6 0.00 0.00 0.00 85 1018.5
20260506110136 57 167 1.7 2.6 0.00 0.00 0.00 85 1018.5
20260506110034 57 167 1.7 2.6 0.00 0.00 0.00 85 1018.5
20260506105933 57 168 1.7 2.6 0.00 0.00 0.00 85 1018.6
20260506105829 57 221 1.7 2.6 0.00 0.00 0.00 85 1018.6
20260506105732 57 160 1.7 2.6 0.00 0.00 0.00 85 1018.6
20260506105629 57 203 1.7 2.6 0.00 0.00 0.00 85 1018.5
20260506105529 57 197 1.7 2.6 0.00 0.00 0.00 85 1018.5
20260506105427 57 207 1.7 2.6 0.00 0.00 0.00 85 1018.5
20260506105323 57 215 0.9 2.6 0.00 0.00 0.00 85 1018.5
20260506105229 57 146 0.9 2.6 0.00 0.00 0.00 85 1018.5
20260506105223 57 142 0.9 2.6 0.00 0.00 0.00 85 1018.5
20260506105124 57 188 0.9 2.6 0.00 0.00 0.00 84 1018.5
20260506105021 57 225 0.9 2.6 0.00 0.00 0.00 84 1018.5
20260506104919 57 215 0.9 2.6 0.00 0.00 0.00 84 1018.5
20260506104815 57 212 0.9 2.6 0.00 0.00 0.00 85 1018.4
20260506104723 57 217 0.9 2.6 0.00 0.00 0.00 85 1018.4
20260506104713 57 193 0.9 2.6 0.00 0.00 0.00 85 1018.4
20260506104615 57 221 0.9 1.7 0.00 0.00 0.00 85 1018.4
20260506104602 57 217 0.9 2.6 0.00 0.00 0.00 85 1018.4
20260506104411 57 217 0.9 2.6 0.00 0.00 0.00 85 1018.4
20260506104336 57 217 0.9 2.6 0.00 0.00 0.00 85 1018.4
20260506104209 57 217 0.9 2.6 0.00 0.00 0.00 85 1018.4
20260506104107 57 227 0.9 2.6 0.00 0.00 0.00 85 1018.4
20260506104008 57 228 0.9 2.6 0.00 0.00 0.00 85 1018.4
20260506103904 57 228 0.9 2.6 0.00 0.00 0.00 85 1018.4
20260506103759 57 228 0.9 2.6 0.00 0.00 0.00 85 1018.4
20260506103730 57 231 0.9 2.6 0.00 0.00 0.00 84 1018.4
20260506103659 57 230 0.9 2.6 0.00 0.00 0.00 85 1018.4
20260506103559 57 199 0.9 2.6 0.00 0.00 0.00 84 1018.4
20260506103458 57 195 0.0 2.6 0.00 0.00 0.00 85 1018.4
20260506103357 57 156 0.0 1.7 0.00 0.00 0.00 85 1018.4
20260506103255 57 136 0.0 1.7 0.00 0.00 0.00 85 1018.4
20260506103230 57 134 0.0 1.7 0.00 0.00 0.00 85 1018.4
20260506103155 57 153 0.0 1.7 0.00 0.00 0.00 85 1018.4
20260506103053 57 134 0.0 1.7 0.00 0.00 0.00 85 1018.4
20260506102953 57 206 0.0 1.7 0.00 0.00 0.00 85 1018.4
20260506102851 57 205 0.0 1.7 0.00 0.00 0.00 85 1018.4
20260506102747 57 206 0.0 1.7 0.00 0.00 0.00 85 1018.4
20260506102730 57 205 0.9 1.7 0.00 0.00 0.00 85 1018.4
20260506102645 57 205 0.9 1.7 0.00 0.00 0.00 85 1018.4
20260506102546 57 207 0.9 1.7 0.00 0.00 0.00 85 1018.4
20260506102445 57 219 0.9 1.7 0.00 0.00 0.00 84 1018.3
20260506102343 57 219 0.9 1.7 0.00 0.00 0.00 85 1018.3
20260506102243 57 200 0.9 1.7 0.00 0.00 0.00 85 1018.3
20260506102231 57 163 0.9 1.7 0.00 0.00 0.00 85 1018.3
20260506102143 57 145 0.9 1.7 0.00 0.00 0.00 85 1018.3
20260506102043 57 229 0.9 1.7 0.00 0.00 0.00 84 1018.3
20260506101943 57 229 0.9 1.7 0.00 0.00 0.00 85 1018.3
20260506101844 57 229 0.9 1.7 0.00 0.00 0.00 84 1018.3
20260506101728 57 229 0.9 1.7 0.00 0.00 0.00 84 1018.3
20260506101641 57 229 0.9 1.7 0.00 0.00 0.00 84 1018.2
20260506101542 57 135 0.9 1.7 0.00 0.00 0.00 84 1018.2
20260506101441 57 135 0.9 1.7 0.00 0.00 0.00 84 1018.2
20260506101341 57 136 0.9 1.7 0.00 0.00 0.00 84 1018.2
20260506101231 57 145 0.9 1.7 0.00 0.00 0.00 84 1018.2
20260506101139 57 146 0.9 1.7 0.00 0.00 0.00 84 1018.2
20260506101039 57 146 0.9 1.7 0.00 0.00 0.00 84 1018.3
20260506100939 57 146 0.9 2.6 0.00 0.00 0.00 84 1018.2
20260506100839 57 181 0.9 2.6 0.00 0.00 0.00 84 1018.2
20260506100739 57 210 0.9 2.6 0.00 0.00 0.00 84 1018.2
20260506100727 57 211 0.9 2.6 0.00 0.00 0.00 84 1018.2
20260506100639 57 207 0.9 2.6 0.00 0.00 0.00 84 1018.2
20260506100551 57 207 0.9 2.6 0.00 0.00 0.00 84 1018.2
20260506100457 57 207 0.9 3.5 0.00 0.00 0.00 84 1018.2
20260506100433 57 207 0.9 3.5 0.00 0.00 0.00 84 1018.2
20260506100354 57 207 0.9 3.5 0.00 0.00 0.00 84 1018.2
20260506100346 57 207 0.9 3.5 0.00 0.00 0.00 84 1018.2
20260506100131 57 200 0.9 3.5 0.00 0.00 0.00 84 1018.2
20260506100032 57 200 0.9 3.5 0.00 0.00 0.00 84 1018.3
20260506095929 57 221 0.9 3.5 0.00 0.00 0.00 84 1018.2
20260506095827 57 212 0.9 3.5 0.00 0.00 0.00 84 1018.2
20260506095729 57 228 0.9 3.5 0.00 0.00 0.00 84 1018.2
20260506095624 57 214 0.9 3.5 0.00 0.00 0.00 84 1018.2
20260506095520 57 214 0.9 3.5 0.00 0.00 0.00 84 1018.2
20260506095450 57 222 0.0 1.7 0.00 0.00 0.00 84 1018.2
20260506095419 57 214 0.0 1.7 0.00 0.00 0.00 84 1018.2
20260506095338 57 222 0.0 1.7 0.00 0.00 0.00 84 1018.2
20260506095219 57 222 0.0 1.7 0.00 0.00 0.00 84 1018.2
20260506095117 57 226 0.0 1.7 0.00 0.00 0.00 84 1018.2
20260506095017 57 226 0.0 1.7 0.00 0.00 0.00 84 1018.2
20260506094941 57 200 0.0 1.7 0.00 0.00 0.00 84 1018.2
20260506094916 57 200 0.0 1.7 0.00 0.00 0.00 84 1018.2
20260506094833 57 200 0.0 1.7 0.00 0.00 0.00 84 1018.2
20260506094713 57 200 0.0 1.7 0.00 0.00 0.00 84 1018.2
20260506094611 57 200 0.0 1.7 0.00 0.00 0.00 84 1018.2
20260506094510 57 200 0.0 1.7 0.00 0.00 0.00 84 1018.2
20260506094409 57 200 0.0 1.7 0.00 0.00 0.00 84 1018.2
20260506094309 57 200 0.0 1.7 0.00 0.00 0.00 84 1018.2
20260506094209 57 200 0.9 1.7 0.00 0.00 0.00 84 1018.2
20260506094109 57 200 0.9 1.7 0.00 0.00 0.00 84 1018.2
20260506094009 57 229 0.9 1.7 0.00 0.00 0.00 84 1018.2
20260506093809 57 141 0.9 2.6 0.00 0.00 0.00 84 1018.2
20260506093721 57 231 0.9 2.6 0.00 0.00 0.00 84 1018.2
20260506093707 57 235 0.9 2.6 0.00 0.00 0.00 84 1018.2
20260506093607 57 235 0.9 2.6 0.00 0.00 0.00 84 1018.2
20260506093507 57 235 0.9 2.6 0.00 0.00 0.00 84 1018.2
20260506093405 57 235 0.9 2.6 0.00 0.00 0.00 84 1018.3
20260506093306 57 235 0.9 2.6 0.00 0.00 0.00 84 1018.2
20260506093222 57 235 0.9 2.6 0.00 0.00 0.00 84 1018.3
20260506093204 57 240 0.9 2.6 0.00 0.00 0.00 84 1018.3
20260506093103 57 240 0.9 2.6 0.00 0.00 0.00 84 1018.2
20260506093001 57 242 0.9 3.5 0.00 0.00 0.00 84 1018.2
20260506092859 57 155 0.9 3.5 0.00 0.00 0.00 84 1018.2
20260506092759 57 232 0.9 3.5 0.00 0.00 0.00 84 1018.2
20260506092721 57 233 0.9 3.5 0.00 0.00 0.00 84 1018.2
20260506092700 57 233 0.9 3.5 0.00 0.00 0.00 84 1018.2
20260506092559 57 233 0.9 3.5 0.00 0.00 0.00 84 1018.2
20260506092459 57 232 0.9 3.5 0.00 0.00 0.00 84 1018.2
20260506092359 57 232 0.9 3.5 0.00 0.00 0.00 84 1018.2
20260506092253 57 233 0.9 3.5 0.00 0.00 0.00 84 1018.2
20260506092215 57 157 0.9 3.5 0.00 0.00 0.00 84 1018.1
20260506092153 57 156 0.9 3.5 0.00 0.00 0.00 84 1018.1
20260506092053 57 156 0.9 3.5 0.00 0.00 0.00 84 1018.2
20260506091951 57 233 0.9 3.5 0.00 0.00 0.00 84 1018.2
20260506091851 57 233 0.9 3.5 0.00 0.00 0.00 84 1018.2
20260506091747 57 232 0.9 3.5 0.00 0.00 0.00 84 1018.1
20260506091712 57 232 0.9 3.5 0.00 0.00 0.00 84 1018.2
20260506091647 57 215 0.9 3.5 0.00 0.00 0.00 84 1018.2
20260506091547 57 215 0.9 3.5 0.00 0.00 0.00 84 1018.1
20260506091447 57 215 0.9 3.5 0.00 0.00 0.00 84 1018.2
20260506091345 57 215 0.9 3.5 0.00 0.00 0.00 84 1018.1
20260506091242 57 193 0.9 3.5 0.00 0.00 0.00 84 1018.2
20260506091213 57 243 0.9 3.5 0.00 0.00 0.00 84 1018.2
20260506091140 57 226 0.9 3.5 0.00 0.00 0.00 84 1018.2
20260506091039 57 221 0.9 2.6 0.00 0.00 0.00 84 1018.2
20260506090937 57 147 0.9 1.7 0.00 0.00 0.00 84 1018.2
20260506090838 57 163 0.9 1.7 0.00 0.00 0.00 84 1018.2
20260506090733 57 222 0.9 1.7 0.00 0.00 0.00 84 1018.2
20260506090710 57 221 0.9 1.7 0.00 0.00 0.00 83 1018.2
20260506090634 57 222 0.9 1.7 0.00 0.00 0.00 83 1018.1
20260506090533 58 221 0.9 2.6 0.00 0.00 0.00 84 1018.2
20260506090433 58 212 0.9 2.6 0.00 0.00 0.00 84 1018.1
20260506090331 58 212 0.9 2.6 0.00 0.00 0.00 83 1018.1
20260506090208 58 204 0.9 2.6 0.00 0.00 0.00 83 1018.1
20260506090127 58 205 0.9 2.6 0.00 0.00 0.00 83 1018.2
20260506090028 58 198 0.9 2.6 0.00 0.00 0.00 83 1018.2
20260506085925 58 233 0.9 2.6 0.00 0.00 0.00 83 1018.2
20260506085823 58 217 0.9 2.6 0.00 0.00 0.00 83 1018.2
20260506085710 58 217 0.9 2.6 0.00 0.00 0.00 83 1018.2
20260506085617 58 194 0.9 2.6 0.00 0.00 0.00 83 1018.2
20260506085517 58 194 0.9 2.6 0.00 0.00 0.00 83 1018.3
20260506085415 58 225 0.9 3.5 0.00 0.00 0.00 83 1018.2
20260506085315 58 226 0.9 3.5 0.00 0.00 0.00 83 1018.2
20260506085209 58 226 0.9 3.5 0.00 0.00 0.00 83 1018.2
20260506085113 58 226 0.9 3.5 0.00 0.00 0.00 83 1018.2
20260506085014 58 211 0.9 3.5 0.00 0.00 0.00 83 1018.2
20260506084912 58 205 0.9 3.5 0.00 0.00 0.00 83 1018.2
20260506084811 58 228 0.9 3.5 0.00 0.00 0.00 83 1018.2
20260506084712 58 229 0.9 3.5 0.00 0.00 0.00 83 1018.2
20260506084611 58 228 0.9 3.5 0.00 0.00 0.00 83 1018.2
20260506084511 58 228 0.9 3.5 0.00 0.00 0.00 83 1018.2
20260506084411 58 231 0.9 3.5 0.00 0.00 0.00 83 1018.2
20260506084312 58 131 0.9 3.5 0.00 0.00 0.00 83 1018.2
20260506084214 58 240 0.9 3.5 0.00 0.00 0.00 83 1018.2
20260506084111 58 239 0.9 3.5 0.00 0.00 0.00 83 1018.2
20260506084011 58 239 0.9 3.5 0.00 0.00 0.00 83 1018.2
20260506083934 58 215 1.7 5.2 0.00 0.00 0.00 83 1018.2
20260506083911 58 232 0.9 3.5 0.00 0.00 0.00 83 1018.2
20260506083828 58 198 1.7 5.2 0.00 0.00 0.00 83 1018.2
20260506083818 58 215 1.7 5.2 0.00 0.00 0.00 83 1018.2
20260506083611 58 236 1.7 5.2 0.00 0.00 0.00 83 1018.2
20260506083511 58 229 1.7 5.2 0.00 0.00 0.00 83 1018.2
20260506083409 58 153 1.7 5.2 0.00 0.00 0.00 83 1018.2
20260506083309 58 226 1.7 5.2 0.00 0.00 0.00 83 1018.2
20260506083214 58 227 2.6 6.1 0.00 0.00 0.00 83 1018.2
20260506083208 58 226 2.6 6.1 0.00 0.00 0.00 83 1018.2
20260506083106 58 226 2.6 6.1 0.00 0.00 0.00 83 1018.2
20260506083002 58 217 2.6 6.1 0.00 0.00 0.00 83 1018.2
20260506082859 58 243 2.6 6.1 0.00 0.00 0.00 83 1018.2
20260506082759 58 184 2.6 7.0 0.00 0.00 0.00 83 1018.2
20260506082709 58 228 2.6 7.0 0.00 0.00 0.00 83 1018.3
20260506082659 58 229 2.6 7.0 0.00 0.00 0.00 83 1018.3
20260506082557 58 215 2.6 7.0 0.00 0.00 0.00 83 1018.2
20260506082451 58 211 2.6 7.0 0.00 0.00 0.00 83 1018.3
20260506082351 58 245 2.6 7.0 0.00 0.00 0.00 83 1018.3
20260506082251 58 219 2.6 7.0 0.00 0.00 0.00 83 1018.2
20260506082209 58 250 2.6 7.0 0.00 0.00 0.00 83 1018.3
20260506082151 58 243 2.6 7.0 0.00 0.00 0.00 83 1018.3
20260506082051 58 233 2.6 7.0 0.00 0.00 0.00 83 1018.3
20260506081845 58 250 1.7 5.2 0.00 0.00 0.00 83 1018.3
20260506081746 58 221 1.7 5.2 0.00 0.00 0.00 83 1018.3
20260506081710 58 248 1.7 5.2 0.00 0.00 0.00 83 1018.2
20260506081645 58 238 1.7 5.2 0.00 0.00 0.00 83 1018.3
20260506081545 58 238 1.7 5.2 0.00 0.00 0.00 83 1018.3
20260506081445 58 236 1.7 5.2 0.00 0.00 0.00 83 1018.3
20260506081346 58 242 1.7 5.2 0.00 0.00 0.00 83 1018.2
20260506081245 58 242 1.7 5.2 0.00 0.00 0.00 83 1018.2
20260506081209 58 211 1.7 5.2 0.00 0.00 0.00 83 1018.2
20260506081143 58 211 1.7 5.2 0.00 0.00 0.00 83 1018.2
20260506081041 58 219 1.7 5.2 0.00 0.00 0.00 83 1018.2
20260506080942 58 212 1.7 5.2 0.00 0.00 0.00 83 1018.2
20260506080841 58 233 1.7 5.2 0.00 0.00 0.00 83 1018.2
20260506080741 58 248 1.7 5.2 0.00 0.00 0.00 83 1018.2
20260506080722 58 235 1.7 5.2 0.00 0.00 0.00 83 1018.2
20260506080641 58 289 1.7 5.2 0.00 0.00 0.00 83 1018.2
20260506080541 58 240 1.7 5.2 0.00 0.00 0.00 83 1018.2
20260506080441 58 225 1.7 5.2 0.00 0.00 0.00 83 1018.2
20260506080339 58 174 1.7 5.2 0.00 0.00 0.00 83 1018.2
20260506080240 58 211 1.7 5.2 0.00 0.00 0.00 83 1018.2
20260506080204 58 168 1.7 5.2 0.00 0.00 0.00 83 1018.2
20260506080140 58 141 1.7 5.2 0.00 0.00 0.00 83 1018.2
20260506073523 58 224 1.7 7.0 0.00 0.02 0.00 83 1018.0
20260506073423 58 246 0.9 7.0 0.00 0.02 0.00 83 1018.0
20260506073323 58 215 0.9 5.2 0.00 0.02 0.00 83 1018.0
20260506073203 58 233 1.7 5.2 0.00 0.02 0.00 83 1018.0
20260506073124 58 233 0.9 5.2 0.00 0.02 0.00 83 1017.9
20260506073023 58 221 1.7 5.2 0.00 0.02 0.00 83 1018.0
20260506072923 58 242 1.7 5.2 0.00 0.02 0.00 83 1018.0
20260506072823 58 239 1.7 5.2 0.00 0.02 0.00 83 1017.9
20260506072722 58 219 1.7 5.2 0.00 0.02 0.00 83 1018.0
20260506072703 58 207 1.7 5.2 0.00 0.02 0.00 83 1018.0
20260506072623 58 236 1.7 5.2 0.00 0.02 0.00 83 1018.0
20260506072523 58 236 1.7 5.2 0.00 0.02 0.00 83 1017.9
20260506072423 58 250 1.7 5.2 0.00 0.02 0.00 83 1017.9
20260506072323 58 233 1.7 5.2 0.00 0.02 0.00 83 1017.9
20260506072227 58 233 1.7 5.2 0.00 0.02 0.00 83 1017.9
20260506072216 58 235 1.7 5.2 0.00 0.02 0.00 83 1017.9
20260506072124 58 233 1.7 5.2 0.00 0.02 0.00 83 1017.9
20260506072023 58 188 1.7 5.2 0.00 0.03 0.00 83 1017.9
20260506071932 58 221 0.9 5.2 0.00 0.03 0.00 83 1017.9
20260506071923 58 232 1.7 5.2 0.00 0.03 0.00 83 1017.9
20260506071823 58 243 1.7 5.2 0.00 0.03 0.00 83 1017.8
20260506071814 58 224 0.9 5.2 0.00 0.03 0.00 83 1017.9
20260506071622 58 221 0.9 5.2 0.00 0.03 0.00 83 1017.9
20260506071520 58 240 0.9 5.2 0.00 0.03 0.00 83 1017.8
20260506071417 58 238 0.9 5.2 0.00 0.03 0.00 83 1017.9
20260506071315 58 214 0.9 5.2 0.00 0.03 0.00 83 1017.9
20260506071215 58 235 0.9 5.2 0.00 0.03 0.00 83 1017.9
20260506071201 58 221 0.9 5.2 0.00 0.03 0.00 83 1017.9
20260506071115 58 239 0.9 5.2 0.00 0.03 0.00 83 1017.9
20260506071015 58 231 0.9 5.2 0.00 0.03 0.00 83 1017.9
20260506070915 58 240 0.9 5.2 0.00 0.03 0.00 83 1017.9
20260506070813 58 240 0.9 5.2 0.00 0.03 0.00 83 1017.9
20260506070711 58 240 0.9 5.2 0.00 0.03 0.00 83 1017.8
20260506070701 58 240 0.9 5.2 0.00 0.03 0.00 83 1017.8
20260506070611 58 240 0.9 5.2 0.00 0.03 0.00 83 1017.8
20260506070510 58 240 0.9 5.2 0.00 0.03 0.00 83 1017.8
20260506070409 58 240 0.9 5.2 0.00 0.03 0.00 83 1017.8
20260506070308 58 236 0.9 5.2 0.00 0.04 0.00 83 1017.7
20260506070213 58 243 0.9 2.6 0.00 0.04 0.00 83 1017.7
20260506070203 58 246 0.9 2.6 0.00 0.04 0.00 83 1017.7
20260506070107 58 245 0.9 2.6 0.00 0.04 0.00 83 1017.7
20260506062428 58 253 0.9 6.1 0.00 0.07 0.04 83 1017.3
20260506062327 58 221 0.9 6.1 0.00 0.08 0.04 83 1017.3
20260506062229 58 266 0.9 6.1 0.00 0.08 0.04 83 1017.3
20260506062127 58 266 0.9 6.1 0.00 0.08 0.04 83 1017.3
20260506062021 58 227 0.9 6.1 0.00 0.08 0.04 83 1017.3
20260506061920 58 264 0.9 6.1 0.00 0.08 0.04 83 1017.3
20260506061819 58 211 0.9 5.2 0.00 0.08 0.04 84 1017.2
20260506061720 58 232 0.9 4.3 0.00 0.08 0.04 84 1017.3
20260506061621 58 232 0.9 5.2 0.00 0.08 0.04 84 1017.3
20260506061515 58 242 0.9 5.2 0.00 0.08 0.04 84 1017.2
20260506061415 58 242 0.9 5.2 0.00 0.08 0.04 84 1017.2
20260506061334 58 242 0.9 5.2 0.00 0.08 0.04 84 1017.1
20260506061315 58 242 0.9 5.2 0.00 0.08 0.04 84 1017.2
20260506061230 58 242 0.9 5.2 0.00 0.08 0.04 84 1017.2
20260506061220 58 242 0.9 5.2 0.00 0.08 0.04 84 1017.1
20260506061014 58 241 0.9 5.2 0.00 0.09 0.04 84 1017.1
20260506060912 58 243 0.9 5.2 0.00 0.09 0.04 84 1017.1
20260506060828 58 276 0.9 3.5 0.00 0.09 0.04 84 1017.2
20260506060811 58 242 0.9 5.2 0.00 0.09 0.04 84 1017.1
20260506060724 58 214 0.9 5.2 0.00 0.09 0.04 84 1017.1
20260506060714 58 276 0.9 3.5 0.00 0.09 0.04 84 1017.2
20260506060507 58 245 0.9 3.5 0.00 0.09 0.04 84 1017.2
20260506060405 58 225 0.9 3.5 0.00 0.09 0.04 84 1017.2
20260506060304 58 225 0.9 3.5 0.00 0.09 0.04 84 1017.2
20260506060204 58 219 0.9 3.5 0.00 0.10 0.04 84 1017.2